Latitude: N 50° 09' 49" Longitude: W 05° 11' 53" Elevation: 168m ASL

There are 43 visitors online

Adverts

<- Previous Day | Today | Next Day ->

All Data for 26 June 2019

Time
A - D
Temp
A - D
Dew Point
A - D
Humidity
A - D
Pressure
A - D
Wind
A - D
Wind Dir Gust
A - D
Rain Rate
A - D
Rain Total
00:00 14.9 11.1 78 1023.0 3.8 NNE 4.5 0.0 0.0
00:01 14.9 11.1 78 1022.9 3.8 NNE 4.5 0.0 0.0
00:02 14.9 11.1 78 1023.0 3.8 NNE 4.5 0.0 0.0
00:03 14.9 11.1 78 1023.0 3.8 NNE 4.5 0.0 0.0
00:04 14.9 11.1 78 1023.0 3.8 NNE 4.5 0.0 0.0
00:05 14.9 11.1 78 1023.1 3.8 NNE 4.5 0.0 0.0
00:06 14.9 11.1 78 1023.1 4.5 NE 4.5 0.0 0.0
00:07 14.9 11.1 78 1023.0 4.5 NE 4.5 0.0 0.0
00:09 14.9 11.1 78 1023.0 4.5 NE 4.5 0.0 0.0
00:10 14.9 11.1 78 1023.0 5.4 NE 5.4 0.0 0.0
00:11 14.9 11.1 78 1023.0 3.8 E 5.4 0.0 0.0
00:12 14.9 11.1 78 1023.0 3.1 NNE 5.4 0.0 0.0
00:13 14.9 11.1 78 1023.0 4.5 NE 5.4 0.0 0.0
00:14 14.9 11.1 78 1023.2 4.5 NE 5.4 0.0 0.0
00:15 14.9 11.1 78 1023.0 3.8 N 5.4 0.0 0.0
00:16 15.0 11.4 79 1023.0 4.5 NE 5.4 0.0 0.0
00:17 14.9 11.3 79 1023.0 3.8 NE 5.4 0.0 0.0
00:18 14.9 11.3 79 1023.0 3.8 NE 5.4 0.0 0.0
00:19 15.0 11.4 79 1022.9 3.8 W 5.4 0.0 0.0
00:20 15.0 11.4 79 1023.0 3.1 NE 4.5 0.0 0.0
00:21 15.0 11.4 79 1022.9 2.2 NW 4.5 0.0 0.0
00:22 15.0 11.4 79 1023.0 0.0 NW 4.5 0.0 0.0
00:23 14.9 11.3 79 1022.9 0.7 N 4.5 0.0 0.0
00:24 14.9 11.3 79 1022.8 0.7 NW 4.5 0.0 0.0
00:25 14.9 11.3 79 1023.0 0.0 NW 4.5 0.0 0.0
00:27 14.9 11.3 79 1023.0 2.2 N 4.5 0.0 0.0
00:28 14.8 11.2 79 1023.0 1.6 N 3.8 0.0 0.0
00:29 14.8 11.2 79 1023.2 1.6 N 3.1 0.0 0.0
00:30 14.8 11.2 79 1023.1 3.1 NW 3.1 0.0 0.0
00:31 14.8 11.2 79 1023.1 1.6 NE 3.1 0.0 0.0
00:32 14.8 11.2 79 1023.1 1.6 NE 3.1 0.0 0.0
00:33 14.8 11.2 79 1023.4 2.2 N 3.1 0.0 0.0
00:34 14.7 11.1 79 1023.4 0.7 N 3.1 0.0 0.0
00:35 14.7 11.1 79 1023.2 0.0 N 3.1 0.0 0.0
00:36 14.7 11.1 79 1023.2 0.0 NW 3.1 0.0 0.0
00:37 14.7 11.1 79 1023.2 0.0 N 3.1 0.0 0.0
00:38 14.7 11.1 79 1023.2 0.0 N 3.1 0.0 0.0
00:39 14.7 11.1 79 1023.1 0.0 NW 3.1 0.0 0.0
00:40 14.7 11.1 79 1023.1 0.0 NW 3.1 0.0 0.0
00:41 14.6 11.0 79 1023.3 0.0 N 2.2 0.0 0.0
00:42 14.6 11.0 79 1023.3 0.0 NW 2.2 0.0 0.0
00:43 14.6 11.0 79 1023.2 0.0 NW 2.2 0.0 0.0
00:44 14.6 11.0 79 1023.2 0.0 NW 0.7 0.0 0.0
00:46 14.6 11.0 79 1023.2 0.0 NW 0.0 0.0 0.0
00:47 14.5 10.9 79 1023.2 0.0 NW 0.0 0.0 0.0
00:48 14.5 10.9 79 1023.2 0.0 NW 0.0 0.0 0.0
00:49 14.5 10.9 79 1023.2 0.0 NW 0.0 0.0 0.0
00:50 14.5 10.9 79 1023.1 0.0 NW 0.0 0.0 0.0
00:51 14.5 10.9 79 1023.1 0.0 E 0.0 0.0 0.0
00:52 14.4 10.8 79 1023.1 0.0 N 0.0 0.0 0.0
00:53 14.4 10.8 79 1023.2 0.0 NW 0.0 0.0 0.0
00:54 14.4 10.8 79 1023.0 0.0 NW 0.0 0.0 0.0
00:55 14.4 10.8 79 1023.1 0.0 N 0.0 0.0 0.0
00:56 14.3 10.7 79 1023.1 2.2 N 2.2 0.0 0.0
00:57 14.3 10.7 79 1023.1 0.7 NW 2.2 0.0 0.0
00:58 14.3 10.7 79 1023.1 1.6 N 2.2 0.0 0.0
00:59 14.3 10.7 79 1023.0 2.2 N 2.2 0.0 0.0
01:00 14.3 10.7 79 1023.0 1.6 NW 2.2 0.0 0.0
01:01 14.3 10.7 79 1023.0 1.6 NW 2.2 0.0 0.0
01:02 14.3 10.7 79 1023.1 1.6 NW 2.2 0.0 0.0
01:03 14.3 10.7 79 1023.1 1.6 NW 2.2 0.0 0.0
01:05 14.3 10.7 79 1023.1 1.6 NW 2.2 0.0 0.0
01:06 14.3 10.7 79 1023.0 1.6 NW 2.2 0.0 0.0
01:07 14.3 10.7 79 1023.2 1.6 NW 2.2 0.0 0.0
01:08 14.3 10.7 79 1023.0 1.6 NW 2.2 0.0 0.0
01:09 14.1 10.5 79 1023.1 0.0 N 1.6 0.0 0.0
01:10 14.1 10.5 79 1023.0 0.0 NW 1.6 0.0 0.0
01:11 14.1 10.5 79 1023.0 0.0 E 1.6 0.0 0.0
01:12 14.1 10.5 79 1023.0 0.0 N 1.6 0.0 0.0
01:13 14.1 10.5 79 1023.1 0.0 NW 1.6 0.0 0.0
01:14 14.1 10.5 79 1023.1 0.0 NW 1.6 0.0 0.0
01:15 14.1 10.5 79 1023.0 0.7 N 1.6 0.0 0.0
01:16 14.1 10.5 79 1023.1 0.0 NE 1.6 0.0 0.0
01:17 14.1 10.5 79 1023.1 2.2 N 2.2 0.0 0.0
01:18 14.1 10.7 80 1023.0 3.8 NW 3.8 0.0 0.0
01:19 14.1 10.7 80 1023.1 3.1 N 3.8 0.0 0.0
01:20 14.1 10.7 80 1023.2 3.8 NW 3.8 0.0 0.0
01:21 14.1 10.7 80 1023.1 3.8 N 3.8 0.0 0.0
01:22 14.1 10.7 80 1023.2 3.1 NE 3.8 0.0 0.0
01:23 14.1 10.7 80 1023.1 3.1 N 3.8 0.0 0.0
01:24 14.1 10.7 80 1023.0 4.5 NE 4.5 0.0 0.0
01:25 14.1 10.7 80 1023.2 5.4 NW 5.4 0.0 0.0
01:26 14.1 10.7 80 1023.1 3.8 NE 5.4 0.0 0.0
01:27 14.1 10.7 80 1023.1 4.5 NE 5.4 0.0 0.0
01:28 14.1 10.7 80 1023.1 4.5 N 5.4 0.0 0.0
01:29 14.1 10.7 80 1023.2 4.5 NE 5.4 0.0 0.0
01:30 14.1 10.7 80 1023.1 3.8 NE 5.4 0.0 0.0
01:31 14.1 10.7 80 1023.1 5.4 NE 5.4 0.0 0.0
01:32 14.0 10.6 80 1023.0 4.5 N 5.4 0.0 0.0
01:33 14.0 10.6 80 1023.0 4.5 N 5.4 0.0 0.0
01:34 14.0 10.6 80 1023.0 4.5 N 5.4 0.0 0.0
01:35 14.0 10.6 80 1023.0 3.8 N 5.4 0.0 0.0
01:36 14.0 10.6 80 1022.9 4.5 NE 5.4 0.0 0.0
01:37 14.0 10.6 80 1022.9 4.5 N 5.4 0.0 0.0
01:38 14.0 10.6 80 1023.0 5.4 NE 5.4 0.0 0.0
01:39 14.0 10.8 81 1023.0 5.4 NE 5.4 0.0 0.0
01:40 13.9 10.7 81 1022.9 6.0 NE 6.0 0.0 0.0
01:41 13.9 10.7 81 1022.9 3.8 NE 6.0 0.0 0.0
01:42 13.9 10.7 81 1022.9 3.8 E 6.0 0.0 0.0
01:43 13.9 10.7 81 1022.9 0.0 NE 6.0 0.0 0.0
01:44 13.9 10.7 81 1022.9 0.0 N 6.0 0.0 0.0
01:45 13.9 10.7 81 1022.7 0.0 NW 6.0 0.0 0.0
01:46 13.9 10.7 81 1022.8 0.0 N 6.0 0.0 0.0
01:47 13.9 10.7 81 1023.0 0.0 NNE 6.0 0.0 0.0
01:48 13.9 10.7 81 1022.9 0.0 NE 6.0 0.0 0.0
01:49 13.9 10.7 81 1023.0 0.0 NE 6.0 0.0 0.0
01:50 13.9 10.7 81 1022.9 0.0 N 4.5 0.0 0.0
01:51 13.9 10.7 81 1022.9 0.0 N 4.5 0.0 0.0
01:52 13.9 10.7 81 1023.0 0.0 NE 3.8 0.0 0.0
01:53 13.8 10.6 81 1022.9 0.0 N 0.0 0.0 0.0
01:54 13.8 10.6 81 1023.0 0.0 E 0.0 0.0 0.0
01:55 13.8 10.8 82 1023.0 0.0 N 0.0 0.0 0.0
01:56 13.8 10.6 81 1022.9 0.0 N 0.0 0.0 0.0
01:57 13.8 10.8 82 1022.9 0.0 NW 0.0 0.0 0.0
01:58 13.8 10.8 82 1023.1 0.0 N 0.0 0.0 0.0
01:59 13.8 10.8 82 1022.8 0.0 NE 0.0 0.0 0.0
02:00 13.8 10.8 82 1023.0 0.0 NE 0.0 0.0 0.0
02:01 13.8 10.8 82 1022.9 0.0 NE 0.0 0.0 0.0
02:02 13.8 10.8 82 1022.8 0.0 NE 0.0 0.0 0.0
02:03 13.8 10.8 82 1022.9 0.0 NE 0.0 0.0 0.0
02:04 13.8 10.8 82 1022.9 0.0 NE 0.0 0.0 0.0
02:05 13.8 10.8 82 1022.9 0.0 NE 0.0 0.0 0.0
02:06 13.8 10.8 82 1022.9 0.0 NE 0.0 0.0 0.0
02:07 13.8 10.8 82 1023.0 0.0 NE 0.0 0.0 0.0
02:08 13.9 10.9 82 1023.0 0.0 NE 0.0 0.0 0.0
02:09 14.0 11.0 82 1023.0 0.0 E 0.0 0.0 0.0
02:10 14.0 11.0 82 1023.0 0.0 N 0.0 0.0 0.0
02:11 13.9 10.9 82 1022.9 0.0 NE 0.0 0.0 0.0
02:12 14.0 11.0 82 1023.1 0.0 N 0.0 0.0 0.0
02:13 14.0 11.2 83 1023.0 0.0 N 0.0 0.0 0.0
02:14 14.0 11.2 83 1023.0 0.0 N 0.0 0.0 0.0
02:15 14.0 11.2 83 1023.0 4.5 N 4.5 0.0 0.0
02:16 14.1 11.3 83 1023.0 2.2 NE 4.5 0.0 0.0
02:17 14.1 11.3 83 1023.0 0.0 NE 4.5 0.0 0.0
02:18 14.1 11.3 83 1022.9 0.0 N 4.5 0.0 0.0
02:19 14.1 11.3 83 1022.7 3.8 NE 4.5 0.0 0.0
02:20 14.1 11.3 83 1022.9 3.8 NE 4.5 0.0 0.0
02:21 14.1 11.3 83 1022.9 3.8 NE 4.5 0.0 0.0
02:22 14.2 11.4 83 1022.9 3.1 NE 4.5 0.0 0.0
02:24 14.2 11.4 83 1022.8 2.2 N 4.5 0.0 0.0
02:25 14.3 11.5 83 1023.0 0.0 NE 3.8 0.0 0.0
02:26 14.3 11.5 83 1022.9 0.0 N 3.8 0.0 0.0
02:27 14.3 11.5 83 1022.8 0.0 NE 3.8 0.0 0.0
02:28 14.3 11.5 83 1023.0 0.7 NE 3.8 0.0 0.0
02:29 14.4 11.6 83 1022.9 0.0 N 3.8 0.0 0.0
02:30 14.4 11.6 83 1022.7 0.0 NE 3.8 0.0 0.0
02:31 14.4 11.7 84 1022.9 0.0 NE 3.1 0.0 0.0
02:32 14.4 11.7 84 1022.8 0.0 N 3.1 0.0 0.0
02:33 14.4 11.7 84 1022.7 0.0 N 2.2 0.0 0.0
02:34 14.4 11.7 84 1022.7 0.0 NE 2.2 0.0 0.0
02:35 14.4 11.7 84 1022.7 0.0 N 0.7 0.0 0.0
02:36 14.4 11.7 84 1022.9 0.0 NNE 0.7 0.0 0.0
02:37 14.4 11.7 84 1022.9 0.0 NE 0.7 0.0 0.0
02:38 14.4 11.7 84 1022.9 0.0 NE 0.7 0.0 0.0
02:39 14.4 11.7 84 1022.9 0.0 NE 0.0 0.0 0.0
02:40 14.3 11.6 84 1022.9 0.0 N 0.0 0.0 0.0
02:41 14.4 11.7 84 1022.9 0.0 NE 0.0 0.0 0.0
02:42 14.4 11.7 84 1022.9 0.0 NE 0.0 0.0 0.0
02:43 14.3 11.6 84 1022.9 0.0 NE 0.0 0.0 0.0
02:44 14.3 11.6 84 1022.8 0.0 NE 0.0 0.0 0.0
02:45 14.3 11.6 84 1022.9 0.0 N 0.0 0.0 0.0
02:46 14.3 11.6 84 1022.7 0.0 NE 0.0 0.0 0.0
02:47 14.3 11.6 84 1022.9 0.0 NE 0.0 0.0 0.0
02:48 14.3 11.6 84 1022.9 0.0 N 0.0 0.0 0.0
02:49 14.2 11.5 84 1022.8 0.0 NE 0.0 0.0 0.0
02:50 14.2 11.5 84 1022.8 0.0 NE 0.0 0.0 0.0
02:51 14.2 11.5 84 1022.9 0.0 N 0.0 0.0 0.0
02:52 14.2 11.5 84 1022.9 3.8 NE 3.8 0.0 0.0
02:53 14.2 11.5 84 1022.7 2.2 NE 3.8 0.0 0.0
02:54 14.2 11.5 84 1022.9 0.0 NE 3.8 0.0 0.0
02:55 14.2 11.5 84 1022.7 0.0 N 3.8 0.0 0.0
02:56 14.2 11.5 84 1022.8 3.8 N 3.8 0.0 0.0
02:57 14.2 11.5 84 1022.9 0.7 N 3.8 0.0 0.0
02:58 14.2 11.5 84 1022.9 3.1 NE 3.8 0.0 0.0
02:59 14.1 11.4 84 1022.8 4.5 NE 4.5 0.0 0.0
03:00 14.1 11.4 84 1022.9 3.8 NE 4.5 0.0 0.0
03:01 14.1 11.4 84 1022.8 3.8 NE 4.5 0.0 0.0
03:02 14.1 11.4 84 1022.8 3.8 NE 4.5 0.0 0.0
03:03 14.1 11.4 84 1022.8 3.8 NE 4.5 0.0 0.0
03:04 14.1 11.4 84 1022.9 3.8 NE 4.5 0.0 0.0
03:05 14.1 11.4 84 1022.9 3.8 N 4.5 0.0 0.0
03:06 14.1 11.4 84 1022.9 3.8 NE 4.5 0.0 0.0
03:07 14.1 11.4 84 1022.9 3.8 WNW 4.5 0.0 0.0
03:08 14.1 11.4 84 1023.0 3.8 NE 4.5 0.0 0.0
03:09 14.1 11.4 84 1023.1 4.5 NE 4.5 0.0 0.0
03:10 14.0 11.3 84 1022.9 3.8 NE 4.5 0.0 0.0
03:11 14.0 11.3 84 1023.1 3.8 NE 4.5 0.0 0.0
03:12 14.0 11.3 84 1023.0 0.0 N 4.5 0.0 0.0
03:13 14.0 11.3 84 1023.0 3.8 NE 4.5 0.0 0.0
03:14 14.0 11.3 84 1022.9 5.4 NE 5.4 0.0 0.0
03:15 14.0 11.3 84 1023.0 4.5 N 5.4 0.0 0.0
03:16 14.1 11.4 84 1023.0 3.1 NE 5.4 0.0 0.0
03:17 14.0 11.3 84 1022.9 0.0 NE 5.4 0.0 0.0
03:18 14.0 11.3 84 1022.9 3.1 N 5.4 0.0 0.0
03:19 14.0 11.3 84 1023.0 0.0 NE 5.4 0.0 0.0
03:20 14.0 11.3 84 1022.9 0.7 E 5.4 0.0 0.0
03:21 14.0 11.3 84 1022.8 2.2 NE 5.4 0.0 0.0
03:22 14.0 11.3 84 1022.8 3.1 NW 5.4 0.0 0.0
03:23 13.9 11.2 84 1022.9 2.2 NE 5.4 0.0 0.0
03:24 13.9 11.2 84 1022.9 3.1 E 4.5 0.0 0.0
03:25 13.9 11.2 84 1022.8 0.7 E 3.1 0.0 0.0
03:26 13.9 11.2 84 1022.9 2.2 NE 3.1 0.0 0.0
03:27 13.9 11.2 84 1023.0 0.0 N 3.1 0.0 0.0
03:28 13.9 11.2 84 1022.9 0.0 NE 3.1 0.0 0.0
03:29 13.9 11.2 84 1022.8 0.0 NE 3.1 0.0 0.0
03:30 13.9 11.2 84 1022.8 0.0 NE 3.1 0.0 0.0
03:31 13.9 11.2 84 1022.8 0.0 NE 3.1 0.0 0.0
03:32 13.9 11.4 85 1022.8 0.0 N 3.1 0.0 0.0
03:33 13.9 11.4 85 1022.9 0.0 NE 3.1 0.0 0.0
03:34 13.9 11.4 85 1022.8 0.0 N 3.1 0.0 0.0
03:35 13.9 11.4 85 1023.0 0.0 NW 2.2 0.0 0.0
03:36 13.9 11.4 85 1023.0 0.0 E 2.2 0.0 0.0
03:37 13.9 11.4 85 1023.0 0.0 NE 0.0 0.0 0.0
03:38 13.9 11.4 85 1022.9 0.0 NW 0.0 0.0 0.0
03:39 13.9 11.4 85 1022.9 0.0 N 0.0 0.0 0.0
03:40 13.9 11.4 85 1023.0 1.6 NNE 1.6 0.0 0.0
03:41 13.9 11.4 85 1022.9 0.0 NE 1.6 0.0 0.0
03:42 13.9 11.4 85 1022.8 0.0 NE 1.6 0.0 0.0
03:43 13.9 11.4 85 1022.8 0.0 N 1.6 0.0 0.0
03:44 13.9 11.4 85 1022.8 2.2 E 2.2 0.0 0.0
03:45 13.9 11.4 85 1023.0 0.0 NE 2.2 0.0 0.0
03:46 13.9 11.4 85 1023.0 0.0 N 2.2 0.0 0.0
03:47 13.9 11.4 85 1022.9 0.0 N 2.2 0.0 0.0
03:48 13.9 11.4 85 1023.0 0.0 NE 2.2 0.0 0.0
03:49 13.9 11.4 85 1022.8 0.0 N 2.2 0.0 0.0
03:50 13.9 11.4 85 1022.9 0.0 N 2.2 0.0 0.0
03:51 13.9 11.4 85 1022.9 0.0 NE 2.2 0.0 0.0
03:52 13.9 11.4 85 1022.8 0.0 NE 2.2 0.0 0.0
03:53 13.9 11.4 85 1022.9 0.0 NNE 2.2 0.0 0.0
03:54 13.9 11.4 85 1022.8 0.0 N 0.0 0.0 0.0
03:55 13.9 11.4 85 1022.9 0.0 NE 0.0 0.0 0.0
03:56 13.9 11.4 85 1022.8 0.0 NNE 0.0 0.0 0.0
03:57 13.9 11.4 85 1022.8 0.0 NNE 0.0 0.0 0.0
03:58 13.9 11.4 85 1023.0 0.0 N 0.0 0.0 0.0
03:59 13.9 11.4 85 1023.0 0.0 N 0.0 0.0 0.0
04:00 13.9 11.4 85 1022.8 0.0 N 0.0 0.0 0.0
04:01 13.9 11.4 85 1022.9 0.0 N 0.0 0.0 0.0
04:02 13.9 11.4 85 1022.8 0.0 N 0.0 0.0 0.0
04:03 13.9 11.4 85 1022.9 0.0 N 0.0 0.0 0.0
04:04 13.9 11.4 85 1022.9 0.0 N 0.0 0.0 0.0
04:05 13.9 11.4 85 1022.9 0.0 N 0.0 0.0 0.0
04:07 14.0 11.5 85 1023.0 0.0 N 1.6 0.0 0.0
04:08 14.0 11.5 85 1022.9 0.0 N 1.6 0.0 0.0
04:09 14.0 11.5 85 1023.0 0.0 NNE 1.6 0.0 0.0
04:10 14.0 11.5 85 1023.0 0.0 NE 1.6 0.0 0.0
04:11 14.0 11.7 86 1023.0 0.0 N 1.6 0.0 0.0
04:12 14.0 11.7 86 1022.7 0.0 N 1.6 0.0 0.0
04:13 14.0 11.7 86 1022.9 0.0 N 1.6 0.0 0.0
04:14 14.0 11.7 86 1022.9 0.0 N 1.6 0.0 0.0
04:15 14.0 11.7 86 1023.0 0.0 N 1.6 0.0 0.0
04:16 14.0 11.7 86 1023.0 0.0 NE 1.6 0.0 0.0
04:17 14.1 11.6 85 1023.0 0.0 NE 1.6 0.0 0.0
04:18 14.0 11.7 86 1023.0 0.0 NE 0.0 0.0 0.0
04:19 14.0 11.7 86 1023.0 0.0 NE 0.0 0.0 0.0
04:20 14.0 11.7 86 1023.0 0.0 NNE 0.0 0.0 0.0
04:21 14.0 11.7 86 1023.0 0.0 NE 0.0 0.0 0.0
04:22 14.1 11.8 86 1023.0 0.0 NE 0.0 0.0 0.0
04:23 14.1 11.8 86 1023.2 0.0 NE 0.0 0.0 0.0
04:24 14.1 11.8 86 1023.1 0.0 NE 0.0 0.0 0.0
04:25 14.1 11.8 86 1023.2 0.0 NE 0.0 0.0 0.0
04:26 14.1 11.8 86 1023.2 0.0 N 0.0 0.0 0.0
04:27 14.1 11.8 86 1023.0 0.0 N 0.0 0.0 0.0
04:28 14.1 11.8 86 1023.1 0.0 NE 0.0 0.0 0.0
04:29 14.1 11.8 86 1023.1 0.0 NE 0.0 0.0 0.0
04:30 14.1 11.8 86 1023.0 0.0 NE 0.0 0.0 0.0
04:31 14.1 11.8 86 1023.1 0.0 NE 0.0 0.0 0.0
04:32 14.1 11.8 86 1023.0 0.0 ENE 0.0 0.0 0.0
04:33 14.2 11.9 86 1023.0 0.0 N 0.0 0.0 0.0
04:34 14.2 11.9 86 1023.1 0.0 N 0.0 0.0 0.0
04:35 14.2 11.9 86 1023.2 0.0 N 0.0 0.0 0.0
04:36 14.2 11.9 86 1023.2 0.0 ENE 0.0 0.0 0.0
04:37 14.2 11.9 86 1023.1 0.0 N 0.0 0.0 0.0
04:38 14.2 11.9 86 1023.1 0.0 NE 0.0 0.0 0.0
04:39 14.3 12.0 86 1023.1 0.0 NE 0.0 0.0 0.0
04:40 14.3 12.0 86 1023.3 0.0 NE 0.0 0.0 0.0
04:41 14.3 12.0 86 1023.4 0.0 NE 0.0 0.0 0.0
04:42 14.3 12.0 86 1023.4 0.0 N 0.0 0.0 0.0
04:43 14.3 12.0 86 1023.1 0.0 NE 0.0 0.0 0.0
04:44 14.3 12.0 86 1023.4 0.0 NNE 0.0 0.0 0.0
04:45 14.3 12.0 86 1023.4 0.0 NNE 0.0 0.0 0.0
04:46 14.3 12.2 87 1023.3 0.0 NE 0.0 0.0 0.0
04:47 14.3 12.2 87 1023.3 0.0 NE 0.0 0.0 0.0
04:48 14.3 12.2 87 1023.4 0.0 NE 0.0 0.0 0.0
04:49 14.3 12.2 87 1023.4 0.0 NE 0.0 0.0 0.0
04:50 14.3 12.2 87 1023.4 0.0 NE 0.0 0.0 0.0
04:51 14.3 12.2 87 1023.5 0.0 NE 0.0 0.0 0.0
04:52 14.3 12.2 87 1023.3 0.0 NE 0.0 0.0 0.0
04:53 14.3 12.2 87 1023.4 0.0 NE 0.0 0.0 0.0
04:54 14.4 12.3 87 1023.4 0.0 NE 0.0 0.0 0.0
04:55 14.3 12.2 87 1023.4 0.0 NE 0.0 0.0 0.0
04:56 14.3 12.2 87 1023.4 0.0 N 0.0 0.0 0.0
04:57 14.4 12.3 87 1023.5 0.0 N 0.0 0.0 0.0
04:58 14.3 12.2 87 1023.5 0.0 NE 0.0 0.0 0.0
04:59 14.4 12.3 87 1023.6 0.0 NE 0.0 0.0 0.0
05:00 14.4 12.3 87 1023.5 0.0 NE 0.0 0.0 0.0
05:01 14.4 12.3 87 1023.5 0.0 NE 0.0 0.0 0.0
05:02 14.4 12.3 87 1023.7 0.0 NE 0.0 0.0 0.0
05:03 14.4 12.3 87 1023.4 0.0 NE 0.0 0.0 0.0
05:04 14.4 12.3 87 1023.5 0.0 NE 0.0 0.0 0.0
05:05 14.4 12.3 87 1023.5 0.0 NE 0.0 0.0 0.0
05:06 14.4 12.3 87 1023.5 0.0 N 0.0 0.0 0.0
05:07 14.4 12.3 87 1023.6 0.0 NE 0.0 0.0 0.0
05:08 14.4 12.3 87 1023.5 0.0 NE 0.0 0.0 0.0
05:09 14.4 12.3 87 1023.5 0.0 N 0.0 0.0 0.0
05:10 14.4 12.3 87 1023.5 0.0 NE 0.0 0.0 0.0
05:11 14.5 12.4 87 1023.6 0.0 N 0.0 0.0 0.0
05:12 14.4 12.3 87 1023.6 0.0 N 0.0 0.0 0.0
05:13 14.5 12.4 87 1023.6 0.0 NE 0.0 0.0 0.0
05:14 14.5 12.4 87 1023.6 0.0 N 0.0 0.0 0.0
05:15 14.5 12.4 87 1023.8 0.0 N 0.0 0.0 0.0
05:16 14.5 12.4 87 1023.6 0.0 NE 0.0 0.0 0.0
05:17 14.5 12.4 87 1023.7 0.0 NW 0.0 0.0 0.0
05:18 14.5 12.4 87 1023.7 0.0 N 0.0 0.0 0.0
05:19 14.5 12.4 87 1023.7 0.0 N 0.0 0.0 0.0
05:20 14.5 12.4 87 1023.6 0.0 N 0.0 0.0 0.0
05:21 14.5 12.4 87 1023.8 0.0 N 0.0 0.0 0.0
05:22 14.4 12.3 87 1023.7 0.0 NW 0.0 0.0 0.0
05:23 14.5 12.4 87 1023.8 0.0 N 0.0 0.0 0.0
05:24 14.5 12.4 87 1023.7 0.0 N 0.0 0.0 0.0
05:26 14.4 12.3 87 1023.8 0.0 N 0.0 0.0 0.0
05:27 14.4 12.3 87 1023.8 0.0 NE 0.0 0.0 0.0
05:28 14.4 12.3 87 1023.9 0.0 N 0.0 0.0 0.0
05:29 14.3 12.2 87 1023.7 0.0 NE 0.0 0.0 0.0
05:30 14.3 12.2 87 1023.8 0.0 NE 0.0 0.0 0.0
05:31 14.4 12.3 87 1023.7 0.0 NE 0.0 0.0 0.0
05:32 14.3 12.2 87 1023.8 0.0 N 0.0 0.0 0.0
05:33 14.3 12.2 87 1023.9 0.0 NE 0.0 0.0 0.0
05:34 14.3 12.2 87 1023.9 0.0 NE 0.0 0.0 0.0
05:35 14.3 12.2 87 1023.7 0.0 N 0.0 0.0 0.0
05:36 14.3 12.2 87 1023.8 0.0 NE 0.0 0.0 0.0
05:37 14.3 12.2 87 1023.8 0.0 N 0.0 0.0 0.0
05:38 14.3 12.2 87 1023.7 0.0 N 0.0 0.0 0.0
05:39 14.3 12.2 87 1023.7 0.0 NNW 0.0 0.0 0.0
05:40 14.3 12.2 87 1023.7 0.0 N 0.0 0.0 0.0
05:41 14.3 12.2 87 1023.8 0.0 N 0.0 0.0 0.0
05:42 14.3 12.2 87 1023.8 0.0 N 0.0 0.0 0.0
05:43 14.3 12.2 87 1023.8 0.0 N 0.0 0.0 0.0
05:44 14.2 12.1 87 1023.9 0.0 NE 0.0 0.0 0.0
05:45 14.2 12.1 87 1023.8 0.0 N 0.0 0.0 0.0
05:46 14.2 12.1 87 1024.0 0.0 N 0.0 0.0 0.0
05:47 14.2 12.1 87 1023.7 0.0 NE 0.0 0.0 0.0
05:48 14.2 12.1 87 1023.7 0.0 N 0.0 0.0 0.0
05:49 14.2 12.1 87 1023.7 0.0 N 0.0 0.0 0.0
05:50 14.2 12.1 87 1023.8 0.0 N 0.0 0.0 0.0
05:51 14.1 12.0 87 1023.7 0.0 NE 0.0 0.0 0.0
05:52 14.1 12.0 87 1023.9 0.0 N 0.0 0.0 0.0
05:53 14.1 12.0 87 1023.8 0.0 N 0.0 0.0 0.0
05:54 14.1 12.0 87 1023.8 0.0 NE 0.0 0.0 0.0
05:55 14.1 12.0 87 1023.8 0.0 N 0.0 0.0 0.0
05:56 14.1 12.0 87 1023.7 0.0 N 0.0 0.0 0.0
05:58 14.0 11.9 87 1023.8 0.0 N 0.0 0.0 0.0
05:59 14.0 11.9 87 1023.7 0.0 N 0.0 0.0 0.0
06:00 14.0 11.9 87 1023.6 0.0 N 0.0 0.0 0.0
06:01 14.0 11.9 87 1023.6 0.0 NE 0.0 0.0 0.0
06:02 14.0 11.9 87 1023.6 0.0 NE 0.0 0.0 0.0
06:03 14.0 11.9 87 1023.8 0.0 N 0.0 0.0 0.0
06:04 14.0 11.9 87 1023.8 0.0 N 0.0 0.0 0.0
06:05 14.0 11.9 87 1023.8 0.0 N 0.0 0.0 0.0
06:06 14.0 11.9 87 1023.7 0.0 N 0.0 0.0 0.0
06:07 14.0 11.9 87 1023.7 0.0 N 0.0 0.0 0.0
06:08 14.0 11.9 87 1023.8 0.0 N 0.0 0.0 0.0
06:09 14.0 11.9 87 1023.8 0.0 N 0.0 0.0 0.0
06:10 14.0 11.9 87 1023.8 0.0 N 0.0 0.0 0.0
06:11 14.0 11.9 87 1023.8 0.0 N 0.0 0.0 0.0
06:12 14.0 11.9 87 1023.6 0.0 N 0.0 0.0 0.0
06:13 14.0 11.9 87 1023.7 0.0 NW 0.0 0.0 0.0
06:14 14.1 12.0 87 1023.6 0.0 N 0.0 0.0 0.0
06:15 14.1 12.0 87 1023.6 0.0 N 0.0 0.0 0.0
06:16 14.1 12.0 87 1023.8 0.0 N 0.0 0.0 0.0
06:17 14.1 12.0 87 1023.7 0.0 N 0.0 0.0 0.0
06:18 14.1 12.0 87 1023.8 0.0 NW 0.0 0.0 0.0
06:19 14.1 12.0 87 1023.8 0.0 NE 0.0 0.0 0.0
06:20 14.1 12.0 87 1023.7 0.0 NW 0.0 0.0 0.0
06:21 14.1 12.0 87 1023.7 0.0 N 0.0 0.0 0.0
06:22 14.1 12.0 87 1023.7 0.0 NW 0.0 0.0 0.0
06:23 14.1 12.0 87 1023.8 0.0 NE 0.0 0.0 0.0
06:24 14.2 12.1 87 1023.9 0.0 NW 0.0 0.0 0.0
06:25 14.2 12.1 87 1023.9 0.0 N 0.0 0.0 0.0
06:26 14.2 12.1 87 1023.8 0.0 NW 0.0 0.0 0.0
06:28 14.3 12.2 87 1023.8 0.0 NW 0.0 0.0 0.0
06:29 14.3 12.2 87 1023.7 0.0 N 0.0 0.0 0.0
06:30 14.3 12.2 87 1023.8 0.0 N 0.0 0.0 0.0
06:31 14.3 12.2 87 1023.8 0.0 N 0.0 0.0 0.0
06:32 14.4 12.3 87 1023.7 0.0 NW 0.0 0.0 0.0
06:33 14.4 12.3 87 1023.6 0.0 NW 0.0 0.0 0.0
06:34 14.5 12.5 88 1023.6 0.0 N 0.0 0.0 0.0
06:35 14.5 12.4 87 1023.7 0.0 NW 0.0 0.0 0.0
06:36 14.6 12.6 88 1023.7 0.0 NW 0.0 0.0 0.0
06:38 14.6 12.6 88 1023.6 0.0 NW 0.0 0.0 0.0
06:39 14.7 12.7 88 1023.8 0.0 NW 0.0 0.0 0.0
06:40 14.7 12.7 88 1023.7 0.0 NE 0.0 0.0 0.0
06:41 14.8 12.8 88 1023.7 0.0 N 0.0 0.0 0.0
06:42 14.8 12.8 88 1023.7 0.0 N 0.0 0.0 0.0
06:43 14.8 12.8 88 1023.9 0.0 NW 0.0 0.0 0.0
06:44 14.9 12.9 88 1023.8 0.0 N 0.0 0.0 0.0
06:45 14.9 12.9 88 1023.8 0.0 N 0.0 0.0 0.0
06:46 14.9 12.9 88 1024.0 0.0 N 0.0 0.0 0.0
06:47 15.0 13.0 88 1023.8 0.0 N 0.0 0.0 0.0
06:48 15.0 13.0 88 1023.9 0.0 NW 0.0 0.0 0.0
06:49 15.0 13.0 88 1024.0 0.0 N 0.0 0.0 0.0
06:50 15.0 13.0 88 1023.8 0.0 NE 0.0 0.0 0.0
06:52 15.1 13.1 88 1023.8 0.0 N 0.0 0.0 0.0
06:53 15.1 13.1 88 1023.9 0.0 N 0.0 0.0 0.0
06:54 15.2 13.2 88 1023.9 0.0 N 0.0 0.0 0.0
06:55 15.2 13.2 88 1023.9 0.0 NNE 0.0 0.0 0.0
06:56 15.2 13.2 88 1023.8 0.0 NE 0.0 0.0 0.0
06:57 15.2 13.2 88 1023.9 0.0 N 0.0 0.0 0.0
06:58 15.2 13.2 88 1023.9 0.0 N 0.0 0.0 0.0
06:59 15.2 13.2 88 1023.8 0.0 NE 0.0 0.0 0.0
07:00 15.2 13.4 89 1023.9 0.0 N 0.0 0.0 0.0
07:01 15.2 13.4 89 1023.8 0.0 N 0.0 0.0 0.0
07:02 15.3 13.5 89 1023.8 0.0 N 0.0 0.0 0.0
07:03 15.2 13.2 88 1023.7 0.0 NW 0.0 0.0 0.0
07:04 15.3 13.5 89 1023.6 0.0 N 0.0 0.0 0.0
07:05 15.3 13.5 89 1023.7 0.0 N 0.0 0.0 0.0
07:06 15.3 13.3 88 1023.7 0.0 NE 0.0 0.0 0.0
07:07 15.3 13.5 89 1023.7 0.0 NE 0.0 0.0 0.0
07:08 15.3 13.5 89 1023.7 0.0 NW 0.0 0.0 0.0
07:09 15.3 13.5 89 1023.7 0.0 NE 0.0 0.0 0.0
07:10 15.3 13.5 89 1023.6 0.0 N 0.0 0.0 0.0
07:11 15.3 13.5 89 1023.6 0.0 N 0.0 0.0 0.0
07:12 15.3 13.5 89 1023.7 0.0 N 0.0 0.0 0.0
07:13 15.3 13.5 89 1023.6 0.0 N 0.0 0.0 0.0
07:14 15.3 13.5 89 1023.5 0.0 N 0.0 0.0 0.0
07:15 15.3 13.5 89 1023.6 0.0 NE 0.0 0.0 0.0
07:16 15.3 13.5 89 1023.6 0.0 N 0.0 0.0 0.0
07:17 15.3 13.5 89 1023.5 0.0 N 0.0 0.0 0.0
07:19 15.4 13.6 89 1023.5 0.0 NW 0.0 0.0 0.0
07:20 15.4 13.6 89 1023.5 0.0 E 0.0 0.0 0.0
07:21 15.4 13.6 89 1023.6 0.0 NE 0.0 0.0 0.0
07:22 15.4 13.6 89 1023.5 0.0 N 0.0 0.0 0.0
07:23 15.4 13.6 89 1023.6 0.0 N 0.0 0.0 0.0
07:24 15.4 13.6 89 1023.6 0.0 N 0.0 0.0 0.0
07:25 15.4 13.6 89 1023.6 0.0 N 0.0 0.0 0.0
07:26 15.5 13.7 89 1023.6 0.7 NE 0.7 0.0 0.0
07:27 15.5 13.7 89 1023.6 0.0 NE 0.7 0.0 0.0
07:28 15.5 13.7 89 1023.6 0.0 NE 0.7 0.0 0.0
07:29 15.5 13.7 89 1023.6 0.0 NE 0.7 0.0 0.0
07:30 15.6 13.8 89 1023.9 0.0 NW 0.7 0.0 0.0
07:31 15.6 13.8 89 1023.8 0.0 NE 0.7 0.0 0.0
07:32 15.6 13.8 89 1023.6 0.0 NE 0.7 0.0 0.0
07:34 15.7 13.9 89 1023.8 0.7 NNE 0.7 0.0 0.0
07:35 15.7 13.9 89 1023.7 0.0 N 0.7 0.0 0.0
07:36 15.8 14.0 89 1023.7 0.0 N 0.7 0.0 0.0
07:37 15.8 14.0 89 1023.6 0.0 NW 0.7 0.0 0.0
07:38 15.9 14.1 89 1023.7 2.2 NE 2.2 0.0 0.0
07:39 15.9 14.1 89 1023.8 0.0 NE 2.2 0.0 0.0
07:40 15.9 14.1 89 1024.0 0.0 N 2.2 0.0 0.0
07:41 16.0 14.4 90 1023.8 0.7 NW 2.2 0.0 0.0
07:42 16.0 14.4 90 1023.9 6.9 N 6.9 0.0 0.0
07:43 16.1 14.5 90 1024.1 5.4 NE 6.9 0.0 0.0
07:44 16.1 14.5 90 1024.0 5.4 NE 6.9 0.0 0.0
07:45 16.2 14.6 90 1024.0 9.2 NW 9.2 0.0 0.0
07:46 16.2 14.6 90 1024.1 9.2 NE 9.2 0.0 0.0
07:47 16.3 14.7 90 1024.1 7.6 N 9.2 0.0 0.0
07:48 16.3 14.7 90 1024.1 7.6 N 9.2 0.0 0.0
07:49 16.4 14.8 90 1024.1 8.3 E 10.7 0.0 0.0
07:51 16.4 14.8 90 1023.9 5.4 NE 10.7 0.0 0.0
07:52 16.5 14.9 90 1024.1 3.8 NE 10.7 0.0 0.0
07:53 16.5 14.9 90 1023.9 4.5 N 10.7 0.0 0.0
07:54 16.5 14.9 90 1024.1 4.5 NE 10.7 0.0 0.0
07:55 16.5 14.9 90 1024.1 2.2 S 10.7 0.0 0.0
07:56 16.6 15.0 90 1024.2 7.6 NE 10.7 0.0 0.0
07:57 16.6 15.0 90 1024.0 5.4 N 10.7 0.0 0.0
07:58 16.6 15.0 90 1024.0 6.9 NE 10.7 0.0 0.0
07:59 16.6 15.0 90 1024.1 6.0 N 9.2 0.0 0.0
08:00 16.6 15.0 90 1024.0 9.2 E 9.2 0.0 0.0
08:01 16.6 15.0 90 1024.1 9.2 E 9.2 0.0 0.0
08:02 16.7 15.1 90 1024.0 8.3 E 9.2 0.0 0.0
08:03 16.7 15.1 90 1024.0 8.3 E 9.2 0.0 0.0
08:04 16.7 15.1 90 1024.0 7.6 N 9.2 0.0 0.0
08:06 16.7 15.1 90 1024.1 0.0 NNE 9.2 0.0 0.0
08:07 16.7 15.1 90 1024.2 0.0 NE 9.2 0.0 0.0
08:08 16.7 15.1 90 1024.1 6.9 W 9.2 0.0 0.0
08:09 16.8 15.2 90 1024.2 6.9 NE 9.2 0.0 0.0
08:10 16.8 15.2 90 1024.0 8.3 E 9.2 0.0 0.0
08:11 16.8 15.2 90 1024.1 6.0 NE 9.2 0.0 0.0
08:12 16.8 15.2 90 1024.2 3.1 NW 9.2 0.0 0.0
08:13 16.9 15.3 90 1024.2 3.8 NE 9.2 0.0 0.0
08:14 16.9 15.3 90 1024.0 0.0 N 9.2 0.0 0.0
08:15 16.9 15.3 90 1024.2 0.7 NNE 9.2 0.0 0.0
08:16 17.0 15.5 91 1024.3 6.0 N 9.2 0.0 0.0
08:17 17.0 15.5 91 1024.1 0.0 NE 9.2 0.0 0.0
08:18 17.0 15.5 91 1024.0 6.0 E 8.3 0.0 0.0
08:19 17.0 15.5 91 1024.1 0.0 NW 8.3 0.0 0.0
08:21 17.1 15.6 91 1024.1 3.1 NE 6.0 0.0 0.0
08:22 17.1 15.6 91 1024.1 5.4 N 6.0 0.0 0.0
08:23 17.1 15.6 91 1024.1 0.0 NE 6.0 0.0 0.0
08:24 17.2 15.7 91 1024.2 3.1 N 6.0 0.0 0.0
08:25 17.2 15.7 91 1024.1 6.0 NE 6.0 0.0 0.0
08:26 17.2 15.7 91 1024.1 4.5 SE 6.0 0.0 0.0
08:27 17.2 15.7 91 1024.1 4.5 NE 6.0 0.0 0.0
08:28 17.2 15.7 91 1024.0 7.6 NE 7.6 0.0 0.0
08:29 17.3 15.8 91 1024.1 0.0 NW 7.6 0.0 0.0
08:30 17.3 15.8 91 1024.2 4.5 E 7.6 0.0 0.0
08:31 17.4 15.9 91 1024.1 8.3 ENE 8.3 0.0 0.0
08:32 17.4 15.9 91 1024.1 6.0 NE 8.3 0.0 0.0
08:33 17.4 15.9 91 1024.2 3.8 NE 8.3 0.0 0.0
08:34 17.5 16.0 91 1024.2 8.3 N 8.3 0.0 0.0
08:35 17.5 16.0 91 1024.1 0.0 NE 8.3 0.0 0.0
08:37 17.6 16.1 91 1024.2 7.6 NE 8.3 0.0 0.0
08:38 17.7 16.2 91 1024.3 8.3 NE 8.3 0.0 0.0
08:39 17.7 16.2 91 1024.3 4.5 NE 8.3 0.0 0.0
08:40 17.8 16.3 91 1024.3 0.0 NE 8.3 0.0 0.0
08:41 17.8 16.3 91 1024.3 0.0 NE 8.3 0.0 0.0
08:42 17.8 16.3 91 1024.2 4.5 NE 8.3 0.0 0.0
08:43 17.9 16.4 91 1024.3 4.5 N 8.3 0.0 0.0
08:44 17.9 16.4 91 1024.3 0.0 NW 8.3 0.0 0.0
08:45 17.9 16.4 91 1024.2 0.0 SE 8.3 0.0 0.0
08:46 17.9 16.4 91 1024.3 9.2 N 9.2 0.0 0.0
08:47 18.0 16.5 91 1024.4 4.5 E 9.2 0.0 0.0
08:48 18.1 16.6 91 1024.5 6.0 NE 9.2 0.0 0.0
08:49 18.1 16.6 91 1024.4 9.8 E 9.8 0.0 0.0
08:50 18.1 16.6 91 1024.3 6.9 N 9.8 0.0 0.0
08:52 18.2 16.7 91 1024.5 3.1 NE 9.8 0.0 0.0
08:53 18.2 16.9 92 1024.4 0.0 NW 9.8 0.0 0.0
08:54 18.2 16.9 92 1024.5 5.4 NE 9.8 0.0 0.0
08:55 18.2 16.7 91 1024.6 3.1 E 9.8 0.0 0.0
08:56 18.3 16.8 91 1024.5 0.0 N 9.8 0.0 0.0
08:57 18.3 17.0 92 1024.7 0.0 N 9.8 0.0 0.0
08:58 18.3 16.8 91 1024.8 0.0 NE 9.8 0.0 0.0
08:59 18.3 16.8 91 1024.7 0.0 NW 6.9 0.0 0.0
09:00 18.4 16.9 91 1024.7 0.0 NE 5.4 0.0 0.0
09:01 18.4 16.9 91 1024.7 0.0 NE 5.4 0.0 0.0
09:02 18.4 16.9 91 1024.8 2.2 N 6.0 0.0 0.0
09:03 18.4 16.9 91 1024.6 3.1 NE 6.0 0.0 0.0
09:04 18.4 16.9 91 1024.6 6.0 N 6.0 0.0 0.0
09:05 18.4 16.9 91 1024.8 6.9 NE 6.9 0.0 0.0
09:06 18.4 16.9 91 1024.6 6.9 NE 6.9 0.0 0.0
09:07 18.4 16.9 91 1024.8 6.9 NE 6.9 0.0 0.0
09:09 18.4 16.9 91 1024.7 4.5 N 6.9 0.0 0.0
09:10 18.4 16.9 91 1024.9 6.0 N 6.9 0.0 0.0
09:11 18.4 16.9 91 1024.8 5.4 NE 6.9 0.0 0.0
09:12 18.4 16.9 91 1024.9 2.2 NE 6.9 0.0 0.0
09:13 18.4 16.9 91 1024.8 3.1 N 6.9 0.0 0.0
09:14 18.4 16.9 91 1024.8 0.0 NW 6.9 0.0 0.0
09:15 18.4 16.9 91 1024.9 5.4 N 7.6 0.0 0.0
09:16 18.4 16.9 91 1024.7 6.9 WNW 7.6 0.0 0.0
09:17 18.4 16.9 91 1024.8 8.3 NE 8.3 0.0 0.0
09:18 18.4 16.9 91 1024.9 6.0 NE 8.3 0.0 0.0
09:19 18.3 16.8 91 1024.9 3.8 NE 8.3 0.0 0.0
09:20 18.3 16.8 91 1025.0 3.8 NE 8.3 0.0 0.0
09:21 18.3 16.8 91 1024.9 3.8 N 8.3 0.0 0.0
09:22 18.3 16.8 91 1025.0 9.2 NNE 9.2 0.0 0.0
09:23 18.3 16.8 91 1025.0 9.2 NNE 9.2 0.0 0.0
09:24 18.3 16.8 91 1025.0 6.0 N 9.2 0.0 0.0
09:26 18.3 16.8 91 1024.9 0.0 N 9.2 0.0 0.0
09:27 18.3 16.8 91 1024.8 3.8 N 9.2 0.0 0.0
09:28 18.3 16.8 91 1025.0 6.0 NE 9.2 0.0 0.0
09:29 18.3 16.8 91 1024.9 3.8 N 9.2 0.0 0.0
09:30 18.3 16.8 91 1024.8 10.7 N 10.7 0.0 0.0
09:31 18.3 16.8 91 1024.8 3.8 NW 10.7 0.0 0.0
09:33 18.3 16.8 91 1024.9 8.3 E 10.7 0.0 0.0
09:34 18.3 16.8 91 1024.9 13.0 NE 13.0 0.0 0.0
09:35 18.3 16.8 91 1025.0 8.3 N 13.0 0.0 0.0
09:36 18.3 16.8 91 1025.0 6.9 NW 13.0 0.0 0.0
09:37 18.2 16.5 90 1025.0 7.6 N 13.0 0.0 0.0
09:38 18.2 16.7 91 1025.0 4.5 N 13.0 0.0 0.0
09:39 18.2 16.5 90 1025.0 5.4 NE 13.0 0.0 0.0
09:40 18.2 16.5 90 1025.1 3.8 NE 13.0 0.0 0.0
09:41 18.2 16.7 91 1025.1 6.0 NW 13.0 0.0 0.0
09:42 18.2 16.5 90 1025.1 8.3 NE 13.0 0.0 0.0
09:43 18.2 16.5 90 1025.2 9.8 NE 13.0 0.0 0.0
09:44 18.2 16.5 90 1025.1 8.3 NE 9.8 0.0 0.0
09:45 18.2 16.5 90 1025.1 5.4 NE 9.8 0.0 0.0
09:46 18.2 16.7 91 1025.2 3.8 NE 9.8 0.0 0.0
09:47 18.2 16.7 91 1025.2 7.6 SE 9.8 0.0 0.0
09:49 18.2 16.7 91 1025.3 3.1 SE 9.8 0.0 0.0
09:50 18.2 16.7 91 1025.2 6.0 NNW 9.8 0.0 0.0
09:51 18.2 16.5 90 1025.3 7.6 NE 9.8 0.0 0.0
09:52 18.2 16.5 90 1025.2 6.0 NE 9.8 0.0 0.0
09:53 18.2 16.5 90 1025.3 2.2 ENE 9.8 0.0 0.0
09:54 18.2 16.7 91 1025.1 3.8 N 7.6 0.0 0.0
09:55 18.2 16.7 91 1025.2 7.6 N 7.6 0.0 0.0
09:56 18.2 16.5 90 1025.2 6.9 NE 7.6 0.0 0.0
09:57 18.2 16.7 91 1025.2 10.7 N 10.7 0.0 0.0
09:58 18.2 16.5 90 1025.3 8.3 NE 10.7 0.0 0.0
09:59 18.2 16.5 90 1025.3 8.3 NE 10.7 0.0 0.0
10:00 18.2 16.5 90 1025.2 8.3 NE 10.7 0.0 0.0
10:01 18.2 16.5 90 1025.2 7.6 NE 10.7 0.0 0.0
10:03 18.2 16.7 91 1025.1 4.5 N 10.7 0.0 0.0
10:04 18.2 16.5 90 1025.2 4.5 E 10.7 0.0 0.0
10:05 18.2 16.5 90 1025.2 5.4 NE 10.7 0.0 0.0
10:06 18.2 16.7 91 1025.3 8.3 N 10.7 0.0 0.0
10:07 18.3 16.8 91 1025.1 5.4 N 10.7 0.0 0.0
10:08 18.3 16.8 91 1025.3 4.5 NE 8.3 0.0 0.0
10:09 18.3 16.8 91 1025.1 5.4 NE 8.3 0.0 0.0
10:10 18.3 16.8 91 1025.1 8.3 N 8.3 0.0 0.0
10:11 18.3 16.8 91 1025.0 5.4 NE 8.3 0.0 0.0
10:12 18.3 16.8 91 1025.1 8.3 NE 8.3 0.0 0.0
10:13 18.4 16.9 91 1025.1 5.4 S 8.3 0.0 0.0
10:14 18.4 16.9 91 1025.1 5.4 S 8.3 0.0 0.0
10:15 18.4 16.7 90 1024.9 3.8 N 8.3 0.0 0.0
10:17 18.4 16.9 91 1024.9 4.5 NW 8.3 0.0 0.0
10:18 18.4 16.9 91 1024.9 4.5 NE 8.3 0.0 0.0
10:19 18.4 16.9 91 1025.0 8.3 NE 8.3 0.0 0.0
10:20 18.4 16.9 91 1025.0 6.0 WNW 8.3 0.0 0.0
10:21 18.4 16.9 91 1025.0 9.8 N 9.8 0.0 0.0
10:22 18.4 16.7 90 1025.0 6.0 N 9.8 0.0 0.0
10:23 18.4 16.9 91 1025.0 9.8 NE 9.8 0.0 0.0
10:24 18.4 16.9 91 1025.0 6.9 N 9.8 0.0 0.0
10:25 18.4 16.9 91 1025.0 8.3 NE 9.8 0.0 0.0
10:26 18.4 16.9 91 1025.0 6.0 N 9.8 0.0 0.0
10:27 18.4 16.7 90 1025.1 3.8 W 9.8 0.0 0.0
10:28 18.4 16.7 90 1025.1 3.8 W 9.8 0.0 0.0
10:29 18.4 16.7 90 1025.1 3.8 N 9.8 0.0 0.0
10:30 18.4 16.7 90 1025.3 5.4 NE 9.8 0.0 0.0
10:32 18.5 16.8 90 1025.3 5.4 E 9.8 0.0 0.0
10:33 18.4 16.7 90 1025.2 6.9 NE 9.8 0.0 0.0
10:34 18.4 16.7 90 1025.1 4.5 NE 8.3 0.0 0.0
10:35 18.5 16.8 90 1025.1 3.1 NW 8.3 0.0 0.0
10:36 18.5 16.8 90 1025.2 5.4 NW 8.3 0.0 0.0
10:37 18.5 16.8 90 1025.1 10.7 NE 10.7 0.0 0.0
10:38 18.4 16.7 90 1025.1 10.7 NE 10.7 0.0 0.0
10:39 18.5 16.8 90 1025.0 8.3 E 10.7 0.0 0.0
10:40 18.4 16.7 90 1025.2 7.6 NE 10.7 0.0 0.0
10:41 18.4 16.7 90 1025.1 6.9 E 10.7 0.0 0.0
10:42 18.4 16.7 90 1025.0 10.7 NE 10.7 0.0 0.0
10:43 18.5 16.8 90 1025.1 4.5 NE 10.7 0.0 0.0
10:44 18.5 16.8 90 1025.1 4.5 NE 10.7 0.0 0.0
10:45 18.4 16.7 90 1025.0 6.0 E 10.7 0.0 0.0
10:47 18.4 16.7 90 1025.0 7.6 NE 10.7 0.0 0.0
10:48 18.4 16.7 90 1024.9 7.6 NE 10.7 0.0 0.0
10:49 18.4 16.7 90 1024.8 6.0 NW 10.7 0.0 0.0
10:50 18.5 16.8 90 1025.0 9.8 N 10.7 0.0 0.0
10:51 18.4 16.7 90 1024.9 8.3 E 10.7 0.0 0.0
10:52 18.4 16.7 90 1024.9 7.6 N 10.7 0.0 0.0
10:53 18.4 16.7 90 1024.6 9.2 N 9.8 0.0 0.0
10:54 18.4 16.7 90 1024.8 3.1 NW 9.8 0.0 0.0
10:55 18.4 16.7 90 1024.7 10.7 NE 10.7 0.0 0.0
10:56 18.4 16.7 90 1024.8 9.2 NNE 10.7 0.0 0.0
10:57 18.4 16.7 90 1024.7 9.2 NE 10.7 0.0 0.0
10:58 18.4 16.7 90 1024.9 6.9 NE 10.7 0.0 0.0
10:59 18.4 16.7 90 1024.9 6.9 NE 10.7 0.0 0.0
11:00 18.4 16.7 90 1024.5 7.6 N 11.4 0.0 0.0
11:01 18.4 16.7 90 1024.7 7.6 N 11.4 0.0 0.0
11:03 18.4 16.7 90 1024.6 13.0 NE 13.0 0.0 0.0
11:04 18.4 16.7 90 1024.7 6.9 SE 13.0 0.0 0.0
11:05 18.4 16.7 90 1024.7 1.6 SE 13.0 0.0 0.0
11:06 18.4 16.7 90 1024.7 4.5 NE 13.0 0.0 0.0
11:07 18.4 16.7 90 1024.8 7.6 NE 13.0 0.0 0.0
11:08 18.4 16.7 90 1024.8 11.4 NE 13.0 0.0 0.0
11:09 18.3 16.6 90 1024.9 6.9 NW 13.0 0.0 0.0
11:10 18.3 16.6 90 1024.9 13.6 N 13.6 0.0 0.0
11:11 18.3 16.6 90 1024.7 5.4 N 13.6 0.0 0.0
11:12 18.3 16.6 90 1024.7 4.5 E 13.6 0.0 0.0
11:13 18.3 16.6 90 1024.7 3.1 NE 13.6 0.0 0.0
11:14 18.3 16.6 90 1024.7 3.1 NE 13.6 0.0 0.0
11:15 18.3 16.6 90 1024.8 6.0 N 13.6 0.0 0.0
11:16 18.3 16.6 90 1025.0 9.8 E 13.6 0.0 0.0
11:17 18.3 16.6 90 1024.8 6.9 NE 13.6 0.0 0.0
11:19 18.3 16.6 90 1024.8 6.0 N 13.6 0.0 0.0
11:20 18.3 16.6 90 1024.7 6.9 N 13.6 0.0 0.0
11:21 18.3 16.6 90 1024.8 4.5 WSW 9.8 0.0 0.0
11:22 18.3 16.6 90 1024.9 12.1 N 12.1 0.0 0.0
11:23 18.3 16.6 90 1024.8 8.3 NE 12.1 0.0 0.0
11:24 18.3 16.6 90 1024.8 6.0 N 12.1 0.0 0.0
11:25 18.3 16.6 90 1024.8 13.6 NE 13.6 0.0 0.0
11:26 18.3 16.6 90 1024.6 9.8 NE 13.6 0.0 0.0
11:27 18.3 16.6 90 1024.6 4.5 N 13.6 0.0 0.0
11:28 18.3 16.6 90 1024.8 6.9 N 13.6 0.0 0.0
11:29 18.3 16.6 90 1024.7 10.7 NE 13.6 0.0 0.0
11:30 18.3 16.6 90 1024.6 10.7 NE 13.6 0.0 0.0
11:31 18.3 16.6 90 1024.5 6.0 NE 13.6 0.0 0.0
11:32 18.3 16.6 90 1024.5 9.8 SE 13.6 0.0 0.0
11:33 18.3 16.6 90 1024.5 9.2 NE 13.6 0.0 0.0
11:34 18.3 16.6 90 1024.4 8.3 NE 13.6 0.0 0.0
11:36 18.3 16.6 90 1024.5 7.6 ENE 10.7 0.0 0.0
11:37 18.4 16.7 90 1024.5 7.6 SE 10.7 0.0 0.0
11:38 18.4 16.7 90 1024.5 8.3 N 10.7 0.0 0.0
11:39 18.4 16.7 90 1024.2 12.1 S 12.1 0.0 0.0
11:40 18.4 16.7 90 1024.3 9.2 NE 12.1 0.0 0.0
11:41 18.4 16.7 90 1024.2 7.6 SE 12.1 0.0 0.0
11:42 18.4 16.7 90 1024.5 6.0 E 12.1 0.0 0.0
11:43 18.4 16.7 90 1024.5 4.5 NE 12.1 0.0 0.0
11:44 18.4 16.7 90 1024.6 6.0 NE 12.1 0.0 0.0
11:45 18.4 16.7 90 1024.7 6.9 NE 12.1 0.0 0.0
11:46 18.4 16.7 90 1024.7 6.9 NE 12.1 0.0 0.0
11:47 18.5 16.8 90 1024.8 4.5 NE 12.1 0.0 0.0
11:48 18.5 16.8 90 1024.6 1.6 E 12.1 0.0 0.0
11:50 18.5 16.8 90 1024.8 8.3 NE 9.2 0.0 0.0
11:51 18.5 16.8 90 1024.6 6.0 SE 8.3 0.0 0.0
11:52 18.5 16.8 90 1024.7 6.9 NE 8.3 0.0 0.0
11:53 18.5 16.8 90 1024.8 7.6 E 8.3 0.0 0.0
11:54 18.5 16.8 90 1024.8 6.9 SE 8.3 0.0 0.0
11:55 18.5 16.8 90 1024.7 6.9 NE 8.3 0.0 0.0
11:56 18.5 16.8 90 1024.6 6.9 N 8.3 0.0 0.0
11:57 18.5 16.8 90 1024.8 6.9 N 8.3 0.0 0.0
11:58 18.6 16.9 90 1024.5 8.3 E 8.3 0.0 0.0
11:59 18.6 16.9 90 1024.7 13.0 NE 13.0 0.0 0.0
12:00 18.6 16.9 90 1024.6 9.2 NE 13.0 0.0 0.0
12:01 18.6 16.9 90 1024.6 9.2 NE 13.0 0.0 0.0
12:02 18.6 16.9 90 1024.7 9.2 NE 13.0 0.0 0.0
12:03 18.6 16.9 90 1024.7 9.8 N 13.0 0.0 0.0
12:04 18.6 16.9 90 1024.8 9.2 N 13.0 0.0 0.0
12:06 18.6 16.9 90 1024.6 3.8 N 13.0 0.0 0.0
12:07 18.6 16.9 90 1024.7 9.8 NE 13.0 0.0 0.0
12:08 18.6 16.9 90 1024.7 7.6 N 13.0 0.0 0.0
12:09 18.7 17.0 90 1024.6 4.5 SW 13.0 0.0 0.0
12:10 18.7 17.0 90 1024.7 9.2 NE 9.8 0.0 0.0
12:11 18.7 17.0 90 1024.6 6.9 ENE 9.8 0.0 0.0
12:12 18.7 17.0 90 1024.7 9.8 NE 9.8 0.0 0.0
12:13 18.7 17.0 90 1024.6 7.6 N 9.8 0.0 0.0
12:14 18.8 17.1 90 1024.6 9.8 N 9.8 0.0 0.0
12:15 18.8 17.1 90 1024.7 6.0 N 9.8 0.0 0.0
12:16 18.8 17.1 90 1024.7 9.8 NE 9.8 0.0 0.0
12:17 18.8 17.1 90 1024.6 9.8 NE 9.8 0.0 0.0
12:18 18.9 17.2 90 1024.7 8.3 NE 9.8 0.0 0.0
12:19 18.9 17.2 90 1024.7 7.6 N 13.0 0.0 0.0
12:20 19.0 17.3 90 1024.6 9.2 NE 13.0 0.0 0.0
12:22 19.0 17.3 90 1024.8 9.8 NW 13.0 0.0 0.0
12:23 19.0 17.3 90 1024.7 12.1 NE 13.0 0.0 0.0
12:24 19.1 17.4 90 1024.8 6.0 E 13.0 0.0 0.0
12:25 19.1 17.4 90 1024.7 6.0 WNW 13.0 0.0 0.0
12:26 19.1 17.4 90 1024.9 11.4 NE 13.0 0.0 0.0
12:27 19.1 17.4 90 1024.8 8.3 NE 13.0 0.0 0.0
12:28 19.2 17.5 90 1024.9 9.2 ENE 13.0 0.0 0.0
12:29 19.2 17.5 90 1024.9 9.8 N 13.0 0.0 0.0
12:30 19.2 17.5 90 1024.9 12.1 NE 13.0 0.0 0.0
12:31 19.2 17.4 89 1024.9 12.1 NE 12.1 0.0 0.0
12:32 19.2 17.4 89 1024.9 4.5 SW 12.1 0.0 0.0
12:33 19.2 17.4 89 1025.0 8.3 NE 12.1 0.0 0.0
12:34 19.2 17.4 89 1025.0 6.9 N 12.1 0.0 0.0
12:35 19.2 17.4 89 1024.9 5.4 NNW 12.1 0.0 0.0
12:37 19.2 17.4 89 1024.9 5.4 N 12.1 0.0 0.0
12:38 19.2 17.4 89 1024.9 3.8 N 12.1 0.0 0.0
12:39 19.2 17.4 89 1024.9 4.5 SW 12.1 0.0 0.0
12:40 19.3 17.5 89 1025.0 7.6 NE 12.1 0.0 0.0
12:41 19.3 17.5 89 1025.0 10.7 N 12.1 0.0 0.0
12:42 19.3 17.5 89 1024.7 6.9 SW 10.7 0.0 0.0
12:43 19.3 17.5 89 1024.9 11.4 NE 11.4 0.0 0.0
12:44 19.3 17.5 89 1024.9 8.3 WNW 11.4 0.0 0.0
12:45 19.4 17.6 89 1024.9 10.7 N 11.4 0.0 0.0
12:46 19.4 17.6 89 1024.8 6.9 NNE 11.4 0.0 0.0
12:47 19.4 17.6 89 1024.8 13.0 NNE 13.0 0.0 0.0
12:48 19.4 17.6 89 1024.8 13.0 NNE 13.0 0.0 0.0
12:49 19.5 17.7 89 1024.8 10.7 N 13.0 0.0 0.0
12:50 19.5 17.7 89 1024.8 4.5 SE 13.0 0.0 0.0
12:52 19.6 17.8 89 1024.8 9.8 NE 13.0 0.0 0.0
12:53 19.6 17.6 88 1024.7 6.9 E 13.0 0.0 0.0
12:54 19.6 17.6 88 1024.9 9.8 N 13.0 0.0 0.0
12:55 19.6 17.6 88 1024.7 12.1 NE 13.0 0.0 0.0
12:56 19.7 17.7 88 1024.7 10.7 N 13.6 0.0 0.0
12:57 19.7 17.7 88 1024.7 7.6 E 13.6 0.0 0.0
12:58 19.7 17.7 88 1024.6 6.9 E 13.6 0.0 0.0
12:59 19.8 17.8 88 1024.6 3.1 N 13.6 0.0 0.0
13:00 19.8 17.8 88 1024.7 12.1 E 13.6 0.0 0.0
13:01 19.8 17.8 88 1024.6 12.1 E 13.6 0.0 0.0
13:02 19.8 17.8 88 1024.6 12.1 E 13.6 0.0 0.0
13:03 19.8 17.8 88 1024.6 12.1 E 13.6 0.0 0.0
13:04 19.8 17.8 88 1024.6 12.1 E 13.6 0.0 0.0
13:05 19.8 17.8 88 1024.5 12.1 E 13.6 0.0 0.0
13:06 19.9 17.7 87 1024.6 8.3 N 12.1 0.0 0.0
13:07 19.9 17.7 87 1024.6 6.0 N 12.1 0.0 0.0
13:08 19.9 17.7 87 1024.7 7.6 N 12.1 0.0 0.0
13:09 20.0 17.8 87 1024.5 9.2 NE 12.1 0.0 0.0
13:11 20.0 17.8 87 1024.4 12.1 NE 12.1 0.0 0.0
13:12 20.0 17.8 87 1024.5 9.8 NW 12.1 0.0 0.0
13:13 20.1 17.9 87 1024.4 6.0 W 12.1 0.0 0.0
13:14 20.1 17.9 87 1024.4 4.5 NE 12.1 0.0 0.0
13:15 20.1 17.9 87 1024.4 6.0 NE 12.1 0.0 0.0
13:16 20.1 17.9 87 1024.4 5.4 NE 12.1 0.0 0.0
13:17 20.2 18.0 87 1024.4 11.4 NE 12.1 0.0 0.0
13:18 20.2 18.0 87 1024.4 10.7 NE 12.1 0.0 0.0
13:19 20.2 18.0 87 1024.5 6.0 NE 12.1 0.0 0.0
13:20 20.2 18.0 87 1024.5 3.8 E 12.1 0.0 0.0
13:21 20.2 18.0 87 1024.5 3.1 N 11.4 0.0 0.0
13:22 20.3 17.9 86 1024.5 3.8 N 11.4 0.0 0.0
13:23 20.3 17.9 86 1024.4 5.4 N 11.4 0.0 0.0
13:24 20.3 17.9 86 1024.4 6.9 ENE 11.4 0.0 0.0
13:26 20.4 18.0 86 1024.5 7.6 N 11.4 0.0 0.0
13:27 20.4 18.0 86 1024.5 6.0 S 11.4 0.0 0.0
13:28 20.4 18.0 86 1024.4 6.9 NE 11.4 0.0 0.0
13:29 20.4 17.8 85 1024.4 10.7 NE 13.0 0.0 0.0
13:30 20.4 17.8 85 1024.5 9.2 SE 13.0 0.0 0.0
13:31 20.4 17.8 85 1024.5 13.0 N 13.0 0.0 0.0
13:32 20.4 17.8 85 1024.5 6.0 N 13.0 0.0 0.0
13:33 20.4 17.8 85 1024.5 5.4 W 13.0 0.0 0.0
13:34 20.5 17.9 85 1024.3 9.2 NE 13.0 0.0 0.0
13:35 20.5 17.9 85 1024.3 9.2 NE 13.0 0.0 0.0
13:36 20.5 17.9 85 1024.3 6.9 NW 13.0 0.0 0.0
13:37 20.5 17.9 85 1024.4 6.9 NE 13.0 0.0 0.0
13:38 20.5 17.9 85 1024.2 5.4 N 13.0 0.0 0.0
13:39 20.6 18.0 85 1024.4 4.5 S 13.0 0.0 0.0
13:41 20.6 18.0 85 1024.4 12.1 N 13.0 0.0 0.0
13:42 20.6 17.8 84 1024.4 9.2 N 12.1 0.0 0.0
13:43 20.6 17.8 84 1024.4 9.2 NE 12.1 0.0 0.0
13:44 20.6 17.8 84 1024.5 7.6 E 12.1 0.0 0.0
13:45 20.7 17.9 84 1024.4 6.0 N 13.0 0.0 0.0
13:46 20.7 17.9 84 1024.5 6.9 NNW 13.0 0.0 0.0
13:47 20.7 17.9 84 1024.4 7.6 NE 13.0 0.0 0.0
13:48 20.7 17.7 83 1024.2 9.8 E 13.0 0.0 0.0
13:49 20.9 17.9 83 1024.3 16.8 NE 16.8 0.0 0.0
13:50 20.9 17.9 83 1024.3 6.9 ENE 16.8 0.0 0.0
13:51 20.9 17.9 83 1024.3 6.9 ENE 16.8 0.0 0.0
13:52 21.0 18.0 83 1024.4 6.0 WNW 16.8 0.0 0.0
13:53 21.0 17.8 82 1024.3 6.0 NE 16.8 0.0 0.0
13:54 21.1 17.9 82 1024.5 9.8 NE 16.8 0.0 0.0
13:56 21.2 17.8 81 1024.2 7.6 N 16.8 0.0 0.0
13:57 21.3 17.9 81 1024.2 5.4 S 16.8 0.0 0.0
13:58 21.3 17.9 81 1024.3 8.3 WSW 16.8 0.0 0.0
13:59 21.4 18.0 81 1024.3 11.4 NE 16.8 0.0 0.0
14:00 21.4 17.8 80 1024.3 7.6 NE 15.9 0.0 0.0
14:01 21.4 17.8 80 1024.4 7.6 NE 15.9 0.0 0.0
14:02 21.4 17.8 80 1024.2 7.6 NE 13.6 0.0 0.0
14:03 21.4 17.8 80 1024.3 7.6 NE 13.6 0.0 0.0
14:04 21.4 17.8 80 1024.3 7.6 NE 13.6 0.0 0.0
14:05 21.4 17.8 80 1024.5 7.6 NE 13.6 0.0 0.0
14:06 21.4 17.8 80 1024.4 7.6 NE 13.6 0.0 0.0
14:07 21.9 17.9 78 1024.2 13.0 NE 13.6 0.0 0.0
14:08 21.9 17.7 77 1024.3 11.4 N 13.6 0.0 0.0
14:10 22.0 17.8 77 1024.3 7.6 NE 13.0 0.0 0.0
14:11 22.0 17.8 77 1024.3 15.9 E 15.9 0.0 0.0
14:12 22.0 17.6 76 1024.3 9.8 NW 15.9 0.0 0.0
14:13 22.0 17.6 76 1024.2 8.3 N 15.9 0.0 0.0
14:14 22.2 18.0 77 1024.3 8.3 NE 15.9 0.0 0.0
14:15 22.2 17.8 76 1024.2 9.8 NE 15.9 0.0 0.0
14:16 22.3 17.9 76 1024.2 11.4 N 15.9 0.0 0.0
14:17 22.4 17.8 75 1024.2 4.5 NW 15.9 0.0 0.0
14:18 22.4 17.8 75 1024.2 6.0 NE 15.9 0.0 0.0
14:19 22.5 17.9 75 1024.2 3.8 NE 15.9 0.0 0.0
14:20 22.5 17.9 75 1024.1 1.6 NNE 15.9 0.0 0.0
14:21 22.6 17.7 74 1024.2 8.3 SE 13.6 0.0 0.0
14:22 22.6 17.7 74 1024.2 8.3 SE 13.6 0.0 0.0
14:23 22.6 17.7 74 1024.0 10.7 NW 13.6 0.0 0.0
14:24 22.6 17.5 73 1024.0 15.2 ENE 15.2 0.0 0.0
14:25 22.6 17.5 73 1024.3 8.3 N 15.2 0.0 0.0
14:26 22.7 17.6 73 1024.2 6.9 NE 15.2 0.0 0.0
14:28 22.8 17.5 72 1024.2 6.9 NE 15.2 0.0 0.0
14:29 22.9 17.6 72 1024.2 11.4 NE 15.2 0.0 0.0
14:30 22.9 17.4 71 1024.2 10.7 NE 15.2 0.0 0.0
14:31 23.0 17.5 71 1024.2 6.9 S 15.2 0.0 0.0
14:32 23.0 17.5 71 1024.2 8.3 NE 15.2 0.0 0.0
14:33 23.1 17.6 71 1024.1 15.9 SE 15.9 0.0 0.0
14:34 23.2 17.9 72 1024.2 6.0 N 15.9 0.0 0.0
14:35 23.3 17.8 71 1024.1 8.3 N 15.9 0.0 0.0
14:36 23.4 17.9 71 1023.9 9.8 E 15.9 0.0 0.0
14:37 23.5 17.7 70 1024.1 6.9 N 15.9 0.0 0.0
14:38 23.5 17.7 70 1024.1 6.9 N 15.9 0.0 0.0
14:39 23.5 18.0 71 1024.0 5.4 N 15.9 0.0 0.0
14:40 23.7 18.1 71 1024.1 9.8 NE 15.9 0.0 0.0
14:41 23.7 18.1 71 1024.0 8.3 ENE 15.9 0.0 0.0
14:42 23.7 18.1 71 1024.0 11.4 N 15.9 0.0 0.0
14:43 23.8 18.2 71 1023.9 13.6 NE 15.9 0.0 0.0
14:45 23.8 18.0 70 1024.0 9.2 ENE 14.5 0.0 0.0
14:46 23.8 18.0 70 1024.0 7.6 NE 14.5 0.0 0.0
14:47 23.9 18.1 70 1023.8 16.8 N 16.8 0.0 0.0
14:48 23.9 18.1 70 1023.8 3.1 N 16.8 0.0 0.0
14:49 23.9 18.1 70 1023.9 15.2 N 16.8 0.0 0.0
14:50 24.0 18.0 69 1023.8 13.0 NE 16.8 0.0 0.0
14:51 24.0 18.0 69 1023.9 12.1 NE 16.8 0.0 0.0
14:52 24.0 18.0 69 1023.8 9.2 NE 16.8 0.0 0.0
14:53 24.0 18.0 69 1023.7 9.8 NE 16.8 0.0 0.0
14:54 24.1 18.1 69 1023.8 11.4 SW 16.8 0.0 0.0
14:55 24.1 18.1 69 1023.7 9.8 NE 16.8 0.0 0.0
14:56 24.1 18.1 69 1023.8 4.5 SE 16.8 0.0 0.0
14:57 24.2 18.2 69 1023.7 11.4 NW 15.2 0.0 0.0
14:58 24.2 18.2 69 1023.7 11.4 NW 15.2 0.0 0.0
14:59 24.3 18.3 69 1023.8 6.0 NE 15.2 0.0 0.0
15:00 24.3 18.0 68 1023.6 13.6 SE 13.6 0.0 0.0
15:01 24.3 18.0 68 1023.7 13.6 SE 13.6 0.0 0.0
15:02 24.3 18.0 68 1023.8 13.6 SE 13.6 0.0 0.0
15:03 24.5 18.2 68 1023.7 10.7 NE 13.6 0.0 0.0
15:05 24.6 18.1 67 1023.7 13.6 N 13.6 0.0 0.0
15:06 24.6 18.1 67 1023.7 10.7 NE 13.6 0.0 0.0
15:07 24.6 18.1 67 1023.7 9.8 NE 13.6 0.0 0.0
15:08 24.6 18.1 67 1023.7 6.9 W 13.6 0.0 0.0
15:09 24.6 18.1 67 1023.5 6.9 N 13.6 0.0 0.0
15:10 24.7 17.9 66 1023.5 13.6 N 13.6 0.0 0.0
15:11 24.7 17.9 66 1023.6 9.8 N 13.6 0.0 0.0
15:12 24.7 17.9 66 1023.7 15.2 E 15.2 0.0 0.0
15:13 24.8 18.0 66 1023.7 11.4 NE 15.2 0.0 0.0
15:14 24.8 18.0 66 1023.5 11.4 NE 15.2 0.0 0.0
15:15 24.8 17.8 65 1023.6 9.8 NE 15.2 0.0 0.0
15:16 24.8 17.8 65 1023.7 8.3 NE 15.2 0.0 0.0
15:17 24.9 17.9 65 1023.6 6.0 N 15.2 0.0 0.0
15:18 24.9 17.9 65 1023.6 14.5 NE 15.2 0.0 0.0
15:19 25.0 18.0 65 1023.7 4.5 NW 15.2 0.0 0.0
15:20 25.0 18.0 65 1023.6 6.9 E 15.2 0.0 0.0
15:21 25.0 18.0 65 1023.5 9.2 NE 15.2 0.0 0.0
15:22 25.1 18.1 65 1023.5 10.7 NE 15.2 0.0 0.0
15:23 25.1 17.8 64 1023.3 13.0 W 14.5 0.0 0.0
15:24 25.1 17.8 64 1023.5 14.5 NNW 14.5 0.0 0.0
15:25 25.1 17.8 64 1023.5 15.9 E 15.9 0.0 0.0
15:26 25.1 17.6 63 1023.5 7.6 NW 15.9 0.0 0.0
15:28 25.2 17.7 63 1023.2 11.4 E 15.9 0.0 0.0
15:29 25.2 17.7 63 1023.5 11.4 N 15.9 0.0 0.0
15:30 25.2 17.7 63 1023.4 8.3 NE 15.9 0.0 0.0
15:31 25.2 17.7 63 1023.3 13.6 NE 15.9 0.0 0.0
15:32 25.2 17.4 62 1023.6 15.2 NE 15.9 0.0 0.0
15:33 25.3 17.5 62 1023.5 9.2 NE 15.9 0.0 0.0
15:34 25.3 17.5 62 1023.4 8.3 NE 15.9 0.0 0.0
15:35 25.3 17.5 62 1023.4 9.8 N 15.9 0.0 0.0
15:36 25.4 17.6 62 1023.5 6.9 N 15.9 0.0 0.0
15:37 25.4 17.6 62 1023.4 7.6 NE 15.9 0.0 0.0
15:38 25.4 17.6 62 1023.2 15.9 NNE 15.9 0.0 0.0
15:39 25.5 17.7 62 1023.3 8.3 E 15.9 0.0 0.0
15:40 25.5 17.7 62 1023.2 11.4 E 15.9 0.0 0.0
15:41 25.5 17.4 61 1023.4 10.7 NE 15.9 0.0 0.0
15:42 25.5 17.4 61 1023.3 5.4 E 15.9 0.0 0.0
15:43 25.5 17.4 61 1023.1 13.0 N 15.9 0.0 0.0
15:44 25.5 17.2 60 1023.1 8.3 NE 15.9 0.0 0.0
15:45 25.5 17.2 60 1023.2 11.4 NE 15.9 0.0 0.0
15:46 25.5 16.9 59 1023.2 5.4 N 15.9 0.0 0.0
15:47 25.6 17.3 60 1023.1 8.3 N 15.9 0.0 0.0
15:48 25.6 17.3 60 1023.1 16.8 NE 16.8 0.0 0.0
15:50 25.6 17.3 60 1023.1 8.3 N 16.8 0.0 0.0
15:51 25.7 17.1 59 1023.0 10.7 E 16.8 0.0 0.0
15:52 25.7 17.4 60 1023.1 5.4 NE 16.8 0.0 0.0
15:53 25.7 17.1 59 1023.1 11.4 SW 16.8 0.0 0.0
15:54 25.7 17.1 59 1023.0 10.7 NE 16.8 0.0 0.0
15:55 25.7 17.1 59 1023.0 13.0 N 16.8 0.0 0.0
15:56 25.8 17.2 59 1023.1 5.4 E 16.8 0.0 0.0
15:57 25.8 17.2 59 1023.0 12.1 ENE 16.8 0.0 0.0
15:58 25.8 17.2 59 1023.0 9.8 NE 13.0 0.0 0.0
15:59 25.8 17.2 59 1023.0 14.5 N 14.5 0.0 0.0
16:00 25.8 17.2 59 1023.1 13.0 NE 14.5 0.0 0.0
16:01 25.8 17.2 59 1023.0 13.0 NE 14.5 0.0 0.0
16:02 25.8 17.2 59 1023.1 13.0 NE 14.5 0.0 0.0
16:03 25.9 17.3 59 1023.0 8.3 NE 14.5 0.0 0.0
16:04 25.9 17.3 59 1023.0 15.9 NE 15.9 0.0 0.0
16:05 25.9 17.3 59 1022.9 14.5 NE 15.9 0.0 0.0
16:06 26.0 17.4 59 1022.9 10.7 NE 15.9 0.0 0.0
16:07 26.0 17.1 58 1022.8 5.4 N 15.9 0.0 0.0
16:09 26.0 17.1 58 1022.9 11.4 S 15.9 0.0 0.0
16:10 26.0 17.1 58 1023.1 8.3 E 15.9 0.0 0.0
16:11 26.0 17.1 58 1022.9 6.9 N 15.9 0.0 0.0
16:12 26.0 16.8 57 1022.9 11.4 NE 15.9 0.0 0.0
16:13 26.0 17.1 58 1022.8 9.2 N 15.9 0.0 0.0
16:14 26.0 17.1 58 1023.0 9.2 N 14.5 0.0 0.0
16:15 26.0 16.8 57 1022.9 10.7 N 12.1 0.0 0.0
16:16 26.0 16.8 57 1022.7 8.3 N 12.1 0.0 0.0
16:17 26.0 17.1 58 1022.9 5.4 NE 12.1 0.0 0.0
16:18 26.0 17.1 58 1022.9 5.4 NE 12.1 0.0 0.0
16:19 26.1 17.2 58 1023.0 6.0 N 12.1 0.0 0.0
16:20 26.1 17.2 58 1022.9 3.1 N 12.1 0.0 0.0
16:21 26.1 17.2 58 1023.0 6.9 NE 11.4 0.0 0.0
16:22 26.2 17.3 58 1022.8 11.4 E 11.4 0.0 0.0
16:23 26.2 17.3 58 1023.0 13.6 NE 13.6 0.0 0.0
16:24 26.3 17.4 58 1022.9 9.8 NE 13.6 0.0 0.0
16:25 26.3 17.4 58 1022.9 10.7 N 13.6 0.0 0.0
16:26 26.3 17.1 57 1022.8 9.8 N 13.6 0.0 0.0
16:27 26.3 17.1 57 1022.8 9.2 N 13.6 0.0 0.0
16:30 26.4 17.2 57 1022.9 3.1 N 13.6 0.0 0.0
16:31 26.4 17.2 57 1022.8 7.6 N 13.6 0.0 0.0
16:32 26.5 17.3 57 1022.9 2.2 E 13.6 0.0 0.0
16:33 26.5 17.6 58 1022.9 3.1 E 10.7 0.0 0.0
16:34 26.6 17.7 58 1022.8 13.0 NE 13.0 0.0 0.0
16:35 26.6 17.1 56 1022.8 6.0 NNE 13.0 0.0 0.0
16:36 26.7 17.5 57 1022.8 3.1 NE 13.0 0.0 0.0
16:37 26.8 17.6 57 1022.5 5.4 NE 13.0 0.0 0.0
16:38 26.8 17.6 57 1022.5 6.9 ENE 13.0 0.0 0.0
16:39 26.9 17.7 57 1022.8 12.1 NE 13.0 0.0 0.0
16:40 26.9 17.7 57 1022.8 8.3 SE 13.0 0.0 0.0
16:41 26.9 17.4 56 1022.6 12.1 N 13.0 0.0 0.0
16:42 26.9 17.4 56 1022.5 6.0 ENE 13.0 0.0 0.0
16:43 26.9 17.4 56 1022.6 6.0 N 13.0 0.0 0.0
16:44 26.9 17.4 56 1022.6 9.2 N 13.0 0.0 0.0
16:45 26.9 17.4 56 1022.6 6.9 E 12.1 0.0 0.0
16:46 26.9 17.4 56 1022.6 9.8 NE 12.1 0.0 0.0
16:48 26.9 17.4 56 1022.5 7.6 W 12.1 0.0 0.0
16:49 26.9 17.4 56 1022.5 6.0 NE 12.1 0.0 0.0
16:50 26.9 17.4 56 1022.5 9.2 NE 12.1 0.0 0.0
16:51 26.9 17.1 55 1022.4 11.4 ENE 11.4 0.0 0.0
16:52 26.9 17.1 55 1022.5 10.7 NNE 11.4 0.0 0.0
16:53 26.9 17.1 55 1022.4 11.4 NE 11.4 0.0 0.0
16:54 26.8 17.0 55 1022.3 7.6 NE 11.4 0.0 0.0
16:55 26.8 17.0 55 1022.3 7.6 N 11.4 0.0 0.0
16:56 26.8 17.0 55 1022.4 13.6 E 13.6 0.0 0.0
16:57 26.8 17.0 55 1022.5 8.3 E 13.6 0.0 0.0
16:58 26.8 17.0 55 1022.4 9.2 E 13.6 0.0 0.0
16:59 26.8 17.0 55 1022.5 12.1 NE 13.6 0.0 0.0
17:00 26.8 17.0 55 1022.2 9.2 NE 13.6 0.0 0.0
17:01 26.8 17.0 55 1022.4 9.2 NE 13.6 0.0 0.0
17:02 26.8 17.0 55 1022.5 9.2 NE 13.6 0.0 0.0
17:03 26.7 16.9 55 1022.4 8.3 N 13.6 0.0 0.0
17:05 26.7 16.9 55 1022.3 11.4 N 13.6 0.0 0.0
17:06 26.7 16.9 55 1022.4 7.6 NE 13.6 0.0 0.0
17:08 26.7 16.9 55 1022.3 5.4 E 12.1 0.0 0.0
17:09 26.6 16.8 55 1022.3 8.3 NE 12.1 0.0 0.0
17:10 26.6 16.8 55 1022.2 10.7 NE 11.4 0.0 0.0
17:11 26.6 16.6 54 1022.2 9.2 E 11.4 0.0 0.0
17:12 26.6 16.6 54 1022.3 11.4 E 11.4 0.0 0.0
17:13 26.6 16.8 55 1022.2 9.8 NE 11.4 0.0 0.0
17:14 26.6 16.6 54 1022.3 13.0 NE 13.0 0.0 0.0
17:15 26.5 16.7 55 1022.2 9.2 N 13.0 0.0 0.0
17:16 26.5 16.7 55 1022.4 7.6 S 13.0 0.0 0.0
17:17 26.5 16.7 55 1022.2 6.9 N 13.0 0.0 0.0
17:18 26.5 16.7 55 1022.2 6.9 N 13.0 0.0 0.0
17:19 26.5 16.7 55 1022.2 12.1 N 13.0 0.0 0.0
17:20 26.6 16.8 55 1022.4 8.3 N 13.0 0.0 0.0
17:21 26.6 16.8 55 1022.1 9.2 N 13.0 0.0 0.0
17:22 26.6 16.8 55 1022.0 4.5 S 13.0 0.0 0.0
17:23 26.5 16.7 55 1022.1 7.6 NW 13.0 0.0 0.0
17:25 26.5 16.5 54 1022.2 13.0 NE 13.0 0.0 0.0
17:26 26.5 16.5 54 1022.0 8.3 NE 13.0 0.0 0.0
17:27 26.5 16.5 54 1022.2 9.2 E 13.0 0.0 0.0
17:28 26.5 16.5 54 1022.0 8.3 N 13.0 0.0 0.0
17:29 26.5 16.5 54 1022.2 11.4 N 13.0 0.0 0.0
17:30 26.5 16.5 54 1022.1 13.6 E 13.6 0.0 0.0
17:31 26.4 16.4 54 1022.1 11.4 NE 13.6 0.0 0.0
17:32 26.4 16.4 54 1022.3 8.3 SE 13.6 0.0 0.0
17:33 26.4 16.4 54 1022.3 8.3 SE 13.6 0.0 0.0
17:34 26.4 16.4 54 1022.2 9.2 N 13.6 0.0 0.0
17:35 26.4 16.4 54 1022.1 9.2 NE 13.6 0.0 0.0
17:36 26.3 16.3 54 1022.1 7.6 N 13.6 0.0 0.0
17:37 26.3 16.3 54 1022.2 9.2 N 13.6 0.0 0.0
17:38 26.4 16.4 54 1022.2 9.2 NE 13.6 0.0 0.0
17:40 26.3 16.3 54 1021.9 7.6 N 13.6 0.0 0.0
17:41 26.3 16.3 54 1021.9 9.8 NW 10.7 0.0 0.0
17:42 26.3 16.3 54 1021.9 8.3 NE 9.8 0.0 0.0
17:43 26.3 16.3 54 1022.0 11.4 NE 11.4 0.0 0.0
17:44 26.3 16.0 53 1022.0 10.7 NE 11.4 0.0 0.0
17:45 26.3 16.0 53 1022.1 15.2 E 15.2 0.0 0.0
17:46 26.3 16.0 53 1022.2 12.1 NE 15.2 0.0 0.0
17:47 26.3 16.0 53 1022.1 9.8 NE 15.2 0.0 0.0
17:48 26.2 15.9 53 1022.1 13.6 ENE 15.2 0.0 0.0
17:49 26.2 15.9 53 1022.1 13.6 ENE 15.2 0.0 0.0
17:50 26.2 15.9 53 1022.2 9.2 NE 15.2 0.0 0.0
17:51 26.2 15.9 53 1022.1 9.8 NE 15.2 0.0 0.0
17:52 26.1 15.8 53 1022.1 13.6 NE 15.2 0.0 0.0
17:53 26.1 15.8 53 1022.1 15.9 NE 15.9 0.0 0.0
17:54 26.1 15.8 53 1022.0 9.8 NE 15.9 0.0 0.0
17:56 26.0 15.7 53 1022.0 8.3 NE 15.9 0.0 0.0
17:57 26.0 15.7 53 1022.0 11.4 N 15.9 0.0 0.0
17:58 26.0 15.7 53 1022.0 10.7 N 15.9 0.0 0.0
17:59 26.0 15.7 53 1022.0 9.8 ENE 15.9 0.0 0.0
18:00 26.0 15.7 53 1021.9 9.8 N 15.9 0.0 0.0
18:01 26.0 15.7 53 1022.0 9.8 N 15.9 0.0 0.0
18:02 26.0 15.7 53 1022.0 13.0 NE 15.9 0.0 0.0
18:03 26.0 15.7 53 1022.0 10.7 E 13.0 0.0 0.0
18:04 25.9 15.6 53 1022.0 7.6 NW 13.0 0.0 0.0
18:05 25.9 15.6 53 1022.1 8.3 NW 13.0 0.0 0.0
18:06 25.9 15.6 53 1022.0 10.7 N 13.0 0.0 0.0
18:07 25.9 15.6 53 1021.9 4.5 NE 13.0 0.0 0.0
18:08 25.9 15.6 53 1022.0 4.5 N 13.0 0.0 0.0
18:09 25.9 15.9 54 1022.1 5.4 NE 13.0 0.0 0.0
18:10 25.9 15.9 54 1022.1 3.8 S 13.0 0.0 0.0
18:11 25.9 15.9 54 1021.9 8.3 NE 13.0 0.0 0.0
18:13 25.9 15.6 53 1022.0 14.5 SE 14.5 0.0 0.0
18:14 25.9 15.6 53 1021.9 13.6 NE 14.5 0.0 0.0
18:15 25.9 15.6 53 1021.8 8.3 NW 14.5 0.0 0.0
18:16 25.8 15.5 53 1021.8 6.0 NNE 14.5 0.0 0.0
18:17 25.8 15.5 53 1022.0 8.3 NE 14.5 0.0 0.0
18:18 25.8 15.8 54 1021.9 6.0 NW 14.5 0.0 0.0
18:19 25.8 15.5 53 1021.9 9.2 ENE 14.5 0.0 0.0
18:20 25.8 15.5 53 1022.0 7.6 SW 14.5 0.0 0.0
18:21 25.8 15.5 53 1021.9 9.8 E 14.5 0.0 0.0
18:22 25.8 15.5 53 1021.9 9.8 E 14.5 0.0 0.0
18:23 25.8 15.5 53 1021.8 9.2 NNE 13.6 0.0 0.0
18:24 25.8 15.5 53 1021.9 12.1 NE 13.6 0.0 0.0
18:25 25.8 15.5 53 1021.9 10.7 N 13.6 0.0 0.0
18:26 25.8 15.5 53 1021.9 9.2 N 13.6 0.0 0.0
18:27 25.8 15.5 53 1021.8 6.9 W 13.6 0.0 0.0
18:28 25.8 15.5 53 1021.7 6.0 N 13.6 0.0 0.0
18:29 25.7 15.4 53 1021.9 6.0 N 13.6 0.0 0.0
18:30 25.7 15.4 53 1021.8 9.2 NW 13.6 0.0 0.0
18:31 25.7 15.4 53 1021.8 7.6 NE 13.6 0.0 0.0
18:32 25.5 15.2 53 1021.8 13.0 NE 13.6 0.0 0.0
18:33 25.5 15.2 53 1022.0 8.3 NE 13.0 0.0 0.0
18:34 25.4 15.1 53 1022.0 8.3 NE 13.0 0.0 0.0
18:35 25.4 15.1 53 1021.9 6.0 N 13.0 0.0 0.0
18:36 25.2 15.0 53 1021.9 9.2 NE 13.0 0.0 0.0
18:37 25.2 15.0 53 1022.0 14.5 NE 14.5 0.0 0.0
18:38 25.2 15.0 53 1022.0 14.5 NE 14.5 0.0 0.0
18:39 25.0 14.8 53 1021.9 8.3 NE 14.5 0.0 0.0
18:40 25.0 14.8 53 1021.9 11.4 NE 14.5 0.0 0.0
18:41 24.9 15.0 54 1021.9 4.5 SE 14.5 0.0 0.0
18:42 24.8 14.9 54 1021.9 9.2 NNW 14.5 0.0 0.0
18:43 24.7 14.8 54 1022.0 13.0 SE 14.5 0.0 0.0
18:45 24.5 14.6 54 1022.0 9.8 E 14.5 0.0 0.0
18:46 24.4 14.5 54 1021.9 10.7 NE 14.5 0.0 0.0
18:47 24.3 14.4 54 1021.9 8.3 NE 14.5 0.0 0.0
18:48 24.2 14.6 55 1021.8 10.7 NW 13.0 0.0 0.0
18:49 24.2 14.6 55 1021.8 8.3 NE 13.0 0.0 0.0
18:50 24.1 14.5 55 1021.9 6.9 NE 13.0 0.0 0.0
18:51 24.0 14.4 55 1021.8 13.0 NE 13.0 0.0 0.0
18:52 24.0 14.4 55 1021.9 8.3 NE 13.0 0.0 0.0
18:53 23.9 14.6 56 1021.9 12.1 NE 13.0 0.0 0.0
18:54 23.9 14.6 56 1021.9 11.4 NE 13.0 0.0 0.0
18:55 23.9 14.6 56 1021.7 4.5 W 13.0 0.0 0.0
18:56 23.8 14.5 56 1021.9 5.4 N 13.0 0.0 0.0
18:57 23.8 14.5 56 1022.0 6.0 E 13.0 0.0 0.0
18:58 23.8 14.5 56 1022.0 4.5 N 13.0 0.0 0.0
18:59 23.8 14.8 57 1022.0 3.1 NW 13.0 0.0 0.0
19:00 23.8 14.8 57 1022.0 5.4 NE 13.0 0.0 0.0
19:01 23.8 14.8 57 1022.0 6.9 N 13.0 0.0 0.0
19:03 23.8 14.8 57 1021.9 3.1 NE 12.1 0.0 0.0
19:04 23.9 14.9 57 1021.9 2.2 N 11.4 0.0 0.0
19:05 23.9 14.9 57 1022.0 7.6 ENE 7.6 0.0 0.0
19:06 23.9 14.9 57 1021.8 3.8 NE 7.6 0.0 0.0
19:07 23.9 14.9 57 1021.9 5.4 NE 7.6 0.0 0.0
19:08 23.9 14.9 57 1022.0 5.4 SE 7.6 0.0 0.0
19:09 24.0 15.0 57 1022.0 8.3 NE 8.3 0.0 0.0
19:10 24.0 15.0 57 1021.9 7.6 NE 8.3 0.0 0.0
19:11 24.0 15.0 57 1022.0 6.9 NE 8.3 0.0 0.0
19:12 24.0 15.0 57 1021.8 10.7 N 10.7 0.0 0.0
19:13 24.0 15.0 57 1021.8 11.4 E 11.4 0.0 0.0
19:14 24.0 15.0 57 1021.8 10.7 E 11.4 0.0 0.0
19:15 23.9 14.9 57 1021.9 4.5 N 11.4 0.0 0.0
19:16 23.9 14.9 57 1022.0 3.8 NE 11.4 0.0 0.0
19:17 23.9 14.9 57 1022.0 9.2 N 11.4 0.0 0.0
19:18 23.9 14.9 57 1022.0 9.8 NE 11.4 0.0 0.0
19:19 23.9 14.9 57 1022.1 6.0 NE 11.4 0.0 0.0
19:20 23.9 14.9 57 1022.0 9.8 NE 11.4 0.0 0.0
19:21 23.9 14.9 57 1022.0 9.2 S 11.4 0.0 0.0
19:22 23.9 14.9 57 1022.1 8.3 NE 11.4 0.0 0.0
19:23 23.9 14.9 57 1022.1 8.3 N 11.4 0.0 0.0
19:24 23.9 14.9 57 1022.0 6.0 SSW 10.7 0.0 0.0
19:25 23.9 14.9 57 1022.1 8.3 SSW 9.8 0.0 0.0
19:26 23.9 14.9 57 1022.1 9.8 NE 9.8 0.0 0.0
19:27 23.9 14.9 57 1022.0 4.5 NNE 9.8 0.0 0.0
19:28 23.9 14.9 57 1022.2 10.7 E 13.0 0.0 0.0
19:29 23.9 14.9 57 1022.1 11.4 N 13.0 0.0 0.0
19:30 23.9 14.9 57 1022.4 9.2 N 13.0 0.0 0.0
19:31 23.9 14.9 57 1022.1 5.4 NW 13.0 0.0 0.0
19:32 23.9 14.9 57 1022.0 13.0 NE 13.0 0.0 0.0
19:33 23.9 14.9 57 1022.1 5.4 N 13.0 0.0 0.0
19:34 23.9 14.9 57 1022.1 19.0 NE 19.0 0.0 0.0
19:35 23.9 14.9 57 1022.1 6.9 N 19.0 0.0 0.0
19:36 23.9 14.9 57 1022.0 9.2 E 19.0 0.0 0.0
19:37 23.9 14.9 57 1022.1 10.7 NE 19.0 0.0 0.0
19:38 23.9 14.9 57 1022.1 7.6 NW 19.0 0.0 0.0
19:39 23.9 14.9 57 1022.0 9.8 NE 19.0 0.0 0.0
19:40 23.9 14.9 57 1022.1 10.7 N 19.0 0.0 0.0
19:41 23.9 14.9 57 1022.2 7.6 NE 19.0 0.0 0.0
19:42 23.9 14.9 57 1022.3 12.1 NE 19.0 0.0 0.0
19:43 23.9 14.9 57 1022.1 10.7 NE 19.0 0.0 0.0
19:44 23.9 14.9 57 1022.0 9.8 NE 19.0 0.0 0.0
19:45 23.9 14.9 57 1022.1 9.2 NE 12.1 0.0 0.0
19:47 23.8 14.8 57 1022.1 13.0 NE 13.0 0.0 0.0
19:48 23.9 14.9 57 1022.2 9.2 N 13.0 0.0 0.0
19:49 23.8 14.8 57 1022.2 9.2 NE 13.0 0.0 0.0
19:50 23.8 14.8 57 1022.3 7.6 E 13.0 0.0 0.0
19:51 23.8 14.8 57 1022.2 5.4 NW 13.0 0.0 0.0
19:52 23.8 14.8 57 1022.2 8.3 N 13.0 0.0 0.0
19:53 23.8 14.8 57 1022.2 6.0 E 13.0 0.0 0.0
19:54 23.8 14.8 57 1022.1 6.9 E 13.0 0.0 0.0
19:55 23.8 14.8 57 1022.3 6.0 NE 13.0 0.0 0.0
19:56 23.7 14.7 57 1022.3 2.2 SW 13.0 0.0 0.0
19:57 23.8 14.8 57 1022.3 7.6 N 13.0 0.0 0.0
19:58 23.7 14.7 57 1022.2 8.3 NNE 9.2 0.0 0.0
19:59 23.7 14.7 57 1022.1 6.9 ENE 9.2 0.0 0.0
20:00 23.7 14.7 57 1022.2 9.2 N 9.2 0.0 0.0
20:01 23.7 14.7 57 1022.4 8.3 NE 9.2 0.0 0.0
20:02 23.6 14.6 57 1022.2 7.6 N 9.2 0.0 0.0
20:03 23.6 14.6 57 1022.2 11.4 N 11.4 0.0 0.0
20:04 23.6 14.6 57 1022.2 7.6 N 11.4 0.0 0.0
20:05 23.6 14.6 57 1022.2 8.3 ENE 11.4 0.0 0.0
20:06 23.5 14.5 57 1022.3 8.3 NE 11.4 0.0 0.0
20:07 23.5 14.2 56 1022.2 10.7 NE 11.4 0.0 0.0
20:08 23.4 14.1 56 1022.3 10.7 NE 11.4 0.0 0.0
20:09 23.4 14.4 57 1022.3 6.0 NE 11.4 0.0 0.0
20:10 23.4 14.4 57 1022.5 7.6 ENE 11.4 0.0 0.0
20:11 23.4 14.4 57 1022.4 6.9 E 11.4 0.0 0.0
20:12 23.3 14.3 57 1022.5 5.4 E 11.4 0.0 0.0
20:13 23.3 14.3 57 1022.5 5.4 E 11.4 0.0 0.0
20:14 23.3 14.3 57 1022.3 6.0 SE 10.7 0.0 0.0
20:15 23.3 14.3 57 1022.3 2.2 E 10.7 0.0 0.0
20:16 23.3 14.3 57 1022.3 10.7 NE 10.7 0.0 0.0
20:17 23.2 14.2 57 1022.3 9.2 NE 10.7 0.0 0.0
20:18 23.1 14.1 57 1022.3 2.2 N 10.7 0.0 0.0
20:19 23.2 14.2 57 1022.4 1.6 SW 10.7 0.0 0.0
20:20 23.1 14.1 57 1022.3 7.6 N 10.7 0.0 0.0
20:21 23.1 14.1 57 1022.5 7.6 N 10.7 0.0 0.0
20:22 23.1 14.1 57 1022.3 6.0 N 10.7 0.0 0.0
20:23 23.0 14.0 57 1022.3 8.3 NE 10.7 0.0 0.0
20:24 23.0 14.0 57 1022.4 10.7 NE 10.7 0.0 0.0
20:25 23.0 14.0 57 1022.4 8.3 NE 10.7 0.0 0.0
20:26 22.9 13.9 57 1022.5 9.2 NE 10.7 0.0 0.0
20:27 22.9 13.9 57 1022.4 8.3 N 10.7 0.0 0.0
20:28 22.8 13.9 57 1022.5 6.9 NE 10.7 0.0 0.0
20:29 22.8 13.9 57 1022.5 6.9 NE 10.7 0.0 0.0
20:30 22.8 14.1 58 1022.5 9.8 E 10.7 0.0 0.0
20:31 22.7 14.0 58 1022.5 6.9 ENE 10.7 0.0 0.0
20:32 22.7 14.0 58 1022.5 7.6 E 10.7 0.0 0.0
20:33 22.6 13.9 58 1022.5 4.5 NE 10.7 0.0 0.0
20:34 22.6 13.9 58 1022.7 12.1 WSW 12.1 0.0 0.0
20:35 22.5 13.8 58 1022.5 9.2 ENE 12.1 0.0 0.0
20:36 22.5 13.8 58 1022.5 9.2 N 12.1 0.0 0.0
20:37 22.5 13.8 58 1022.6 6.0 NE 12.1 0.0 0.0
20:38 22.4 13.7 58 1022.5 6.9 SW 12.1 0.0 0.0
20:39 22.4 13.7 58 1022.6 4.5 NE 12.1 0.0 0.0
20:40 22.3 13.7 58 1022.5 6.0 NE 12.1 0.0 0.0
20:41 22.3 13.7 58 1022.5 8.3 NE 12.1 0.0 0.0
20:42 22.3 13.9 59 1022.6 6.0 N 12.1 0.0 0.0
20:43 22.2 13.6 58 1022.5 7.6 E 12.1 0.0 0.0
20:44 22.1 13.7 59 1022.4 3.1 N 9.2 0.0 0.0
20:45 22.1 13.7 59 1022.4 8.3 NE 9.2 0.0 0.0
20:46 22.0 13.6 59 1022.4 3.8 NE 8.3 0.0 0.0
20:47 22.1 13.7 59 1022.3 9.2 NE 9.2 0.0 0.0
20:48 22.0 13.6 59 1022.5 5.4 NE 9.2 0.0 0.0
20:49 22.0 13.6 59 1022.5 3.8 NW 9.2 0.0 0.0
20:50 21.9 13.5 59 1022.5 5.4 ENE 9.2 0.0 0.0
20:51 21.9 13.5 59 1022.4 12.1 NE 12.1 0.0 0.0
20:52 21.8 13.4 59 1022.5 9.2 NE 12.1 0.0 0.0
20:53 21.8 13.7 60 1022.4 6.9 N 12.1 0.0 0.0
20:54 21.7 13.6 60 1022.6 3.8 NE 12.1 0.0 0.0
20:55 21.7 13.6 60 1022.5 4.5 NE 12.1 0.0 0.0
20:56 21.7 13.6 60 1022.4 4.5 N 12.1 0.0 0.0
20:57 21.6 13.5 60 1022.5 3.8 E 12.1 0.0 0.0
20:58 21.6 13.5 60 1022.6 6.0 W 12.1 0.0 0.0
20:59 21.6 13.5 60 1022.4 4.5 W 12.1 0.0 0.0
21:00 21.5 13.7 61 1022.7 6.9 NE 12.1 0.0 0.0
21:01 21.5 13.7 61 1022.5 6.9 NE 9.2 0.0 0.0
21:02 21.4 13.6 61 1022.7 8.3 WNW 8.3 0.0 0.0
21:03 21.4 13.6 61 1022.4 8.3 NE 8.3 0.0 0.0
21:04 21.4 13.6 61 1022.5 3.1 WSW 8.3 0.0 0.0
21:05 21.3 13.5 61 1022.6 5.4 E 8.3 0.0 0.0
21:06 21.3 13.5 61 1022.6 5.4 E 8.3 0.0 0.0
21:07 21.3 13.5 61 1022.7 6.9 N 8.3 0.0 0.0
21:08 21.3 13.5 61 1022.7 2.2 E 8.3 0.0 0.0
21:09 21.2 13.4 61 1022.6 10.7 E 10.7 0.0 0.0
21:10 21.2 13.4 61 1022.6 6.9 E 10.7 0.0 0.0
21:11 21.1 13.3 61 1022.6 6.9 NE 10.7 0.0 0.0
21:12 21.1 13.5 62 1022.5 8.3 N 10.7 0.0 0.0
21:13 21.1 13.5 62 1022.7 9.2 N 10.7 0.0 0.0
21:14 21.1 13.5 62 1022.6 6.0 NE 10.7 0.0 0.0
21:15 21.0 13.5 62 1022.6 6.9 N 10.7 0.0 0.0
21:16 21.0 13.5 62 1022.7 8.3 NE 10.7 0.0 0.0
21:17 21.0 13.5 62 1022.7 6.0 SW 10.7 0.0 0.0
21:18 21.0 13.5 62 1022.6 7.6 NE 10.7 0.0 0.0
21:19 20.9 13.4 62 1022.6 6.0 N 9.2 0.0 0.0
21:20 20.9 13.4 62 1022.7 5.4 NW 9.2 0.0 0.0
21:21 20.8 13.5 63 1022.9 6.0 SW 9.2 0.0 0.0
21:22 20.8 13.3 62 1022.6 4.5 N 9.2 0.0 0.0
21:23 20.8 13.5 63 1022.8 6.0 NW 8.3 0.0 0.0
21:24 20.8 13.5 63 1022.7 5.4 NW 9.8 0.0 0.0
21:25 20.7 13.4 63 1022.7 7.6 NE 9.8 0.0 0.0
21:26 20.7 13.4 63 1022.8 9.8 NE 9.8 0.0 0.0
21:27 20.7 13.4 63 1022.8 5.4 NE 9.8 0.0 0.0
21:28 20.7 13.4 63 1022.9 4.5 NW 9.8 0.0 0.0
21:29 20.7 13.4 63 1022.9 7.6 NE 9.8 0.0 0.0
21:30 20.7 13.4 63 1022.8 6.0 NNE 9.8 0.0 0.0
21:31 20.6 13.3 63 1022.9 10.7 NE 10.7 0.0 0.0
21:32 20.6 13.3 63 1022.9 6.0 N 10.7 0.0 0.0
21:33 20.6 13.3 63 1022.9 6.0 NE 10.7 0.0 0.0
21:34 20.6 13.3 63 1023.0 6.0 NW 10.7 0.0 0.0
21:35 20.5 13.2 63 1023.0 5.4 SE 10.7 0.0 0.0
21:37 20.5 13.5 64 1023.0 8.3 WNW 10.7 0.0 0.0
21:38 20.5 13.5 64 1023.0 5.4 E 10.7 0.0 0.0
21:39 20.5 13.5 64 1023.0 9.2 NE 10.7 0.0 0.0
21:40 20.4 13.4 64 1023.0 5.4 NW 10.7 0.0 0.0
21:41 20.4 13.4 64 1023.2 11.4 N 11.4 0.0 0.0
21:42 20.4 13.4 64 1023.1 11.4 NE 11.4 0.0 0.0
21:43 20.3 13.3 64 1023.1 9.2 NE 11.4 0.0 0.0
21:44 20.3 13.3 64 1023.2 8.3 NE 11.4 0.0 0.0
21:45 20.3 13.3 64 1023.0 7.6 N 11.4 0.0 0.0
21:46 20.3 13.3 64 1023.2 7.6 N 11.4 0.0 0.0
21:47 20.2 13.2 64 1023.2 7.6 NW 11.4 0.0 0.0
21:48 20.2 13.2 64 1023.2 5.4 SW 11.4 0.0 0.0
21:49 20.2 13.4 65 1023.3 7.6 N 11.4 0.0 0.0
21:50 20.2 13.4 65 1023.1 5.4 N 11.4 0.0 0.0
21:51 20.1 13.3 65 1023.2 9.8 NE 11.4 0.0 0.0
21:52 20.1 13.3 65 1023.2 8.3 NE 11.4 0.0 0.0
21:53 20.1 13.3 65 1023.2 13.0 SE 13.0 0.0 0.0
21:54 20.0 13.2 65 1023.1 8.3 ENE 13.0 0.0 0.0
21:55 20.0 13.2 65 1023.2 5.4 N 13.0 0.0 0.0
21:56 20.0 13.2 65 1023.3 8.3 NE 13.0 0.0 0.0
21:57 20.0 13.2 65 1023.2 9.2 E 13.0 0.0 0.0
21:58 20.0 13.2 65 1023.1 6.9 NE 13.0 0.0 0.0
21:59 20.0 13.2 65 1023.1 8.3 NE 13.0 0.0 0.0
22:00 19.9 13.4 66 1023.2 11.4 S 13.0 0.0 0.0
22:01 19.9 13.4 66 1023.1 11.4 S 13.0 0.0 0.0
22:02 19.9 13.4 66 1023.3 11.4 N 13.0 0.0 0.0
22:03 19.9 13.4 66 1023.4 9.2 NE 11.4 0.0 0.0
22:04 19.8 13.3 66 1023.2 6.9 N 11.4 0.0 0.0
22:05 19.8 13.3 66 1023.3 9.2 NE 11.4 0.0 0.0
22:06 19.8 13.3 66 1023.3 6.9 NE 11.4 0.0 0.0
22:07 19.8 13.3 66 1023.3 9.8 NE 12.1 0.0 0.0
22:08 19.8 13.3 66 1023.4 9.8 N 12.1 0.0 0.0
22:09 19.7 13.2 66 1023.2 12.1 N 12.1 0.0 0.0
22:10 19.7 13.2 66 1023.3 8.3 N 12.1 0.0 0.0
22:11 19.7 13.2 66 1023.5 13.6 E 13.6 0.0 0.0
22:12 19.7 13.2 66 1023.3 13.0 NNW 13.6 0.0 0.0
22:13 19.7 13.2 66 1023.3 12.1 E 13.6 0.0 0.0
22:14 19.7 13.4 67 1023.5 6.0 NE 13.6 0.0 0.0
22:15 19.7 13.4 67 1023.4 11.4 NNE 13.6 0.0 0.0
22:16 19.6 13.3 67 1023.4 6.0 N 13.6 0.0 0.0
22:17 19.6 13.3 67 1023.5 9.2 NE 13.6 0.0 0.0
22:18 19.6 13.3 67 1023.5 9.2 SE 13.6 0.0 0.0
22:19 19.6 13.3 67 1023.5 6.9 E 13.6 0.0 0.0
22:20 19.6 13.3 67 1023.5 11.4 E 13.6 0.0 0.0
22:21 19.6 13.3 67 1023.4 8.3 E 13.6 0.0 0.0
22:22 19.5 13.2 67 1023.6 9.8 NE 13.0 0.0 0.0
22:23 19.5 13.2 67 1023.5 11.4 NE 13.0 0.0 0.0
22:24 19.5 13.2 67 1023.5 11.4 NE 11.4 0.0 0.0
22:25 19.5 13.2 67 1023.6 9.8 N 11.4 0.0 0.0
22:26 19.5 13.2 67 1023.6 8.3 N 11.4 0.0 0.0
22:27 19.5 13.2 67 1023.6 12.1 N 12.1 0.0 0.0
22:28 19.5 13.2 67 1023.5 9.2 N 12.1 0.0 0.0
22:29 19.4 13.1 67 1023.5 6.9 NE 12.1 0.0 0.0
22:30 19.4 13.1 67 1023.5 6.0 NE 12.1 0.0 0.0
22:31 19.5 13.2 67 1023.5 9.2 NE 12.1 0.0 0.0
22:32 19.4 13.4 68 1023.5 9.2 W 12.1 0.0 0.0
22:33 19.4 13.4 68 1023.6 7.6 N 12.1 0.0 0.0
22:34 19.4 13.4 68 1023.4 9.8 NE 12.1 0.0 0.0
22:36 19.4 13.4 68 1023.6 6.9 N 12.1 0.0 0.0
22:37 19.4 13.4 68 1023.5 12.1 SE 12.1 0.0 0.0
22:38 19.3 13.3 68 1023.6 13.6 NE 13.6 0.0 0.0
22:39 19.3 13.3 68 1023.5 9.8 NE 13.6 0.0 0.0
22:40 19.3 13.3 68 1023.5 10.7 NNE 13.6 0.0 0.0
22:41 19.3 13.3 68 1023.6 12.1 E 13.6 0.0 0.0
22:42 19.3 13.3 68 1023.5 14.5 WSW 14.5 0.0 0.0
22:43 19.3 13.3 68 1023.4 10.7 E 14.5 0.0 0.0
22:44 19.3 13.3 68 1023.5 15.2 NE 15.2 0.0 0.0
22:45 19.3 13.3 68 1023.5 11.4 NE 15.2 0.0 0.0
22:46 19.3 13.3 68 1023.5 10.7 NE 15.2 0.0 0.0
22:47 19.3 13.3 68 1023.8 6.0 N 15.2 0.0 0.0
22:48 19.2 13.2 68 1023.6 10.7 NE 15.2 0.0 0.0
22:49 19.2 13.2 68 1023.6 6.0 NE 15.2 0.0 0.0
22:50 19.2 13.2 68 1023.6 9.2 NE 15.2 0.0 0.0
22:51 19.2 13.2 68 1023.8 6.9 NE 15.2 0.0 0.0
22:52 19.2 13.2 68 1023.7 7.6 NW 15.2 0.0 0.0
22:53 19.2 13.2 68 1023.7 7.6 NW 15.2 0.0 0.0
22:54 19.2 13.2 68 1023.7 13.0 N 15.2 0.0 0.0
22:55 19.2 13.2 68 1023.8 10.7 NE 14.5 0.0 0.0
22:56 19.2 13.2 68 1023.6 9.8 NE 14.5 0.0 0.0
22:57 19.2 13.2 68 1023.7 13.0 NE 14.5 0.0 0.0
22:58 19.2 13.2 68 1023.8 13.6 NNE 14.5 0.0 0.0
22:59 19.2 13.2 68 1023.9 9.8 N 14.5 0.0 0.0
23:00 19.2 13.4 69 1023.5 13.0 NE 14.5 0.0 0.0
23:01 19.1 13.3 69 1023.7 8.3 E 14.5 0.0 0.0
23:02 19.1 13.3 69 1023.6 8.3 E 14.5 0.0 0.0
23:03 19.1 13.3 69 1023.7 8.3 E 14.5 0.0 0.0
23:04 19.1 13.3 69 1023.8 8.3 E 13.6 0.0 0.0
23:06 19.1 13.3 69 1023.7 10.7 E 13.6 0.0 0.0
23:07 19.1 13.3 69 1023.5 15.2 NE 15.2 0.0 0.0
23:08 19.1 13.3 69 1023.7 9.2 N 15.2 0.0 0.0
23:09 19.1 13.3 69 1023.8 6.9 N 15.2 0.0 0.0
23:10 19.1 13.3 69 1023.8 5.4 E 15.2 0.0 0.0
23:11 19.1 13.3 69 1023.7 13.0 E 15.2 0.0 0.0
23:12 19.0 13.2 69 1023.7 12.1 NE 15.2 0.0 0.0
23:13 19.0 13.2 69 1023.6 6.0 NE 15.2 0.0 0.0
23:14 19.0 13.2 69 1023.7 12.1 NE 15.2 0.0 0.0
23:15 19.0 13.2 69 1023.6 14.5 E 15.2 0.0 0.0
23:16 18.7 12.9 69 1023.8 15.9 N 15.9 0.0 0.0
23:17 19.0 13.2 69 1023.7 10.7 N 15.9 0.0 0.0
23:18 19.0 13.2 69 1023.8 5.4 NW 15.9 0.0 0.0
23:19 18.9 13.1 69 1023.7 9.2 NE 15.9 0.0 0.0
23:20 18.9 13.1 69 1023.8 13.6 NE 15.9 0.0 0.0
23:21 18.9 13.1 69 1023.6 10.7 S 15.9 0.0 0.0
23:22 18.9 13.1 69 1023.8 11.4 NE 15.9 0.0 0.0
23:23 18.9 13.1 69 1023.9 10.7 NE 15.9 0.0 0.0
23:24 18.9 13.1 69 1023.8 10.7 S 15.9 0.0 0.0
23:25 18.9 13.1 69 1023.8 11.4 S 15.9 0.0 0.0
23:26 18.8 13.0 69 1023.8 9.2 NE 15.9 0.0 0.0
23:27 18.8 13.0 69 1023.8 7.6 NE 13.6 0.0 0.0
23:28 18.8 13.0 69 1023.7 13.6 N 13.6 0.0 0.0
23:29 18.8 13.0 69 1023.8 9.8 E 13.6 0.0 0.0
23:30 18.8 13.0 69 1023.8 13.0 NE 13.6 0.0 0.0
23:31 18.7 12.9 69 1023.8 13.0 N 13.6 0.0 0.0
23:32 18.7 12.9 69 1023.9 10.7 N 13.6 0.0 0.0
23:33 18.7 12.9 69 1023.9 10.7 E 13.6 0.0 0.0
23:34 18.7 12.9 69 1023.8 13.6 N 13.6 0.0 0.0
23:35 18.7 12.9 69 1023.9 8.3 SE 13.6 0.0 0.0
23:36 18.7 12.9 69 1023.9 8.3 NE 20.6 0.0 0.0
23:37 18.7 12.9 69 1023.8 8.3 NNE 20.6 0.0 0.0
23:38 18.7 12.9 69 1023.9 13.0 NW 20.6 0.0 0.0
23:39 18.7 12.9 69 1023.9 7.6 ENE 20.6 0.0 0.0
23:40 18.6 12.8 69 1024.0 9.2 NE 20.6 0.0 0.0
23:41 18.6 12.8 69 1024.0 9.2 NE 20.6 0.0 0.0
23:42 18.6 12.8 69 1024.0 10.7 NW 20.6 0.0 0.0
23:43 18.6 12.8 69 1024.0 12.1 N 20.6 0.0 0.0
23:44 18.6 12.8 69 1024.0 14.5 NNE 20.6 0.0 0.0
23:45 18.6 12.8 69 1023.9 15.9 SE 20.6 0.0 0.0
23:46 18.5 12.7 69 1023.9 11.4 N 20.6 0.0 0.0
23:47 18.5 12.7 69 1023.8 11.4 N 15.9 0.0 0.0
23:48 18.5 12.7 69 1023.9 12.1 NE 15.9 0.0 0.0
23:49 18.5 12.7 69 1023.9 7.6 NNE 15.9 0.0 0.0
23:50 18.5 12.7 69 1023.8 10.7 SE 15.9 0.0 0.0
23:51 18.5 12.7 69 1023.8 11.4 N 15.9 0.0 0.0
23:52 18.4 12.6 69 1023.9 13.0 NNE 15.9 0.0 0.0
23:53 18.5 12.7 69 1023.9 13.6 NE 15.9 0.0 0.0
23:54 18.4 12.8 70 1023.8 12.1 NW 15.9 0.0 0.0
23:55 18.4 12.6 69 1023.7 15.9 NE 15.9 0.0 0.0
23:56 18.4 12.8 70 1023.9 13.0 NW 15.9 0.0 0.0
23:57 18.4 12.8 70 1023.9 6.9 NW 15.9 0.0 0.0
23:58 18.4 12.8 70 1023.9 9.8 NE 15.9 0.0 0.0
23:59 18.3 12.7 70 1023.9 7.6 N 15.9 0.0 0.0

UK - WEATHER STATION TOPSITES - UK World Weather Websites

This is a private weather station, never base important decisions or events on data from this weather station. Although every effort has been made to make the data as accurate as possible it does not meet MetOffice standards. It is proved as a guide of local weather conditions. We accept no liability for any loss which may arise from use of the data.

Copyright © Carnkie Weather 2009 - 2019.